Jump to content
Sign in to follow this  
Jazz

FSATIS. Бесплатный погодник для полетов онлайн.

Recommended Posts

В файле radio.dat прописаны только четыре радиостанции, на пятой список обрывается. И частоты не те, что указаны на сайте FSATIS.
В меню есть теперь пункт Database Update, который загружает все базы частот и станций с сайта.

Share this post


Link to post
Share on other sites

А ветер на эшелоне программа рандомный берет или реальный?

Share this post


Link to post
Share on other sites

Рандомный никогда. Если реальный недоступен (или отключен) - ставится статистический по региону.

Share this post


Link to post
Share on other sites

На сайте есть вот такой файлик UUDD v2 with update. Я так понимаю, что это текстуры как

. Но вот как его правильно установить?

 

Пробовал вот этим способом и не получается:

 

 

 

Перезалил.

 

Жень вот инструкция по работе с текстурами:

1. в папке фсатиса создаем папку texture

2. в этой папке создаем ini с кодом нужного порта, например UTTT.ini со следующим содержимым:

 

 

[uTTT]

path=путь к папке сценария в симе, например C:/FS9/Addon Scenery/UTTT

 

 

3. создаем следующие папки:

UTTT_dry

UTTT_wet

UTTT_win

UTTT_slush

UTTT_snow

4. в каждую папку кладем нужные текстуры аэродромных покрытий

 

 

Edited by Ромыч

Share this post


Link to post
Share on other sites

Спасибо за новую версию, но всё равно не исправлен баг, описанный в посте 789 п.2.

 

Обработка верхних ветров исправлена? на эшелоне появился ветер, но в логе пишет

"20:15:44 load aloft error

20:15:44 simulated wind ok".

Это нормально?

 

Что еще наблюдаю. В некоторых портах по-прежнему некорректно генерируется высота нижнего края облачности

например при метаре

UKBB 102030Z 30002MPS 9999 BKN024 M04/M05 Q1022 88190053 NOSIG

нижний край сформировался на 2132 футов от уровня моря(2132-3116 фт), хотя должен на 2400 фт от аэродрома (или 2700 от моря) (слой 2132-3116фт) и тип облаков почему-то cirrus.

 

По какому алгоритму программа выбирает тип облаков (cumulus,stratus,cirrus)?

В оверкаст в симе наблюдаю как правило stratus, но мне кажется что облака cumulus смотрятся лучше, плотнее.

Share this post


Link to post
Share on other sites
Спасибо за новую версию, но всё равно не исправлен баг, описанный в посте 789 п.2.
Попробуй 12.1.11 скачать - так лучше?

 

Обработка верхних ветров исправлена?
От меня, к сожалению, временно не зависит наличие данных по ветрам - в какие-то дни данные есть, в какие-то данных нет. Вопрос все еще решается. Если на сервере нет данных (load aloft error) - программа ставит сезоный статистический ветер по региону (simulated wind), что достаточно близко к реальному.

 

 

Что еще наблюдаю. В некоторых портах по-прежнему некорректно генерируется высота нижнего края облачности

например при метаре

UKBB 102030Z 30002MPS 9999 BKN024 M04/M05 Q1022 88190053 NOSIG

нижний край сформировался на 2132 футов от уровня моря(2132-3116 фт), хотя должен на 2400 фт от аэродрома (или 2700 от моря) (слой 2132-3116фт) и тип облаков почему-то cirrus.

Этот циррус не есть нижний слой облачности, это граница инверсии или температурного слоя, она же является верхней границей слоя видимости - как правило совпадает с нижним слоем облачности, но сим может вносить свои поправки (внутренний переход-сглаживание между станциями). В меню настроек погоды этот слой маскирует любой другой слой, нижняя граница которого находится ниже его верхней границы, но если его удалить, то получим вот такую картинку:

2Qi2Q.jpg

 

 

Так же пока что не решен вопрос с достоверностью базы по метеостанциям - в ней указаны превышения самих станций в реале, в некоторых случаях отличающиеся от превышения аэродрома в симе.

 

По какому алгоритму программа выбирает тип облаков (cumulus,stratus,cirrus)?

В оверкаст в симе наблюдаю как правило stratus, но мне кажется что облака cumulus смотрятся лучше, плотнее.

Алгоритм сложен и зависимостей много, но основной параметр для определения облачности - стабильность атмосферы, далее следуют различные поправки. Edited by Jazz

Share this post


Link to post
Share on other sites

Пробовал вот этим способом и не получается:

Названия папок изменились.

_dry для сухой чистой впп

_wet для влажной или мокрой впп

_win для сухой чистой впп, покрытой инеем или остатками снега/льда

_snow для влажной впп с остатакми снега, покрытой мокрым снегом или слякотью

_hwin для впп, покрытой сухим или укатанным снегом

 

Программа скорее всего текстуры меняет, но изменений вы не увидите, пока сценарий не будет выгружен и загружен снова. Если при прилете вы прослушали АТИС за 200км, то на прилет уже получите сценарий с новыми текстурами.

Edited by Jazz

Share this post


Link to post
Share on other sites

Папки -dry, -wet и т.д. должны находится в папке texture, которая лежит в папке с фсатисом?

Share this post


Link to post
Share on other sites
Попробуй 12.1.11 скачать - так лучше?

Нет, то же самое. белая пелена получается если фсатис запустить раньше, чем полностью будет загружен полёт

по логу похоже не правильно определяется моё положение(сначала определяет как DGTK потом DGAS) (хотя нареканий на работу fsuipc нет, с другими программами определяет положение правильно и всегда, даже когда полет только-только создается)

 

18:56:02 init begin FSATIS version 12.1.11

18:56:02 options online wx wind http://usa-s1.vatsim...a/metar.php?id=

18:56:09 FSUIPC 3.820

18:56:27 wx init begin ===

18:56:27 XXXX 0mb

18:56:27 XXXX 0C -> 0C

18:56:28 wx cleared

18:56:30 closest station found DGTK (FS=DGTK)

18:56:31 received DGTK.

18:56:31 No wx data for DGTK

18:56:31 wx init end ===

18:56:31 closest station found DGAS (FS=DGAS)

18:56:31 received DGAS.

18:56:31 No wx data for DGAS

18:56:31 surround update begin **

18:56:31 received PLEASE ISSUE AN ICAO CODE.

18:56:31 surround update end **

18:57:33 closest station found UKHH (FS=UKHH)

18:57:34 received UKHH 111830Z 28003MPS 9999 BKN019 M01/M03 Q1020 26190060 NOSIG

18:57:34 load aloft error

18:57:34 simulated wind ok

18:57:34 wx generated for UKHH UKHH 111830Z 28003MPS 9999 BKN019 M01/M03 Q1020 26190060 NOSIG

18:57:34 UKHH 1020mb

18:57:34 UKHH -1C -> -58C

18:57:35 KSC set to 60 based on wx

18:57:35 fs9 wx updated for UKHH

 

 

но если его удалить, то получим вот такую картинку:

да, действительно, удалил и под ним лежит второй слой на месте.

 

Алгоритм сложен и зависимостей много, но основной параметр для определения облачности - стабильность атмосферы, далее следуют различные поправки.

понятно. но вот на что хочу обратить внимание: когда генерируется оверкаст стратус слой при вот таком метаре

UKBB 102030Z 30002MPS 9999 OVC024 M04/M05 Q1022 88190053 NOSIG

выглядит в симе довольно жидко, на оверкаст не похоже, хотя им является.

post-47194-0-88054700-1326310281_thumb.jpg

может быть тогда увеличивать толщину стратус слоя где-то до 5-6 тысяч футов (сейчас мне снегерировало около 2 тыс фт), чтобы выглядел плотно?

кумулус же при такой же толщине нормально выглядит для оверкаста.

Edited by Phemmer

Share this post


Link to post
Share on other sites

UKBB 102030Z 30002MPS 9999 OVC024 M04/M05 Q1022 88190053 NOSIG

А из окна что видно?

Примерно так - все серое и затянутое?

Hbj6g.jpg

 

Я уже много раз писал, что дырки в слоистой облачности - суть косяк создателей текстур.

Edited by Jazz

Share this post


Link to post
Share on other sites

Оверкаст подразумевает отсутствие просветов неба, что можно получить увеличив толщину слоя. Слой будет выглядеть не так "сплющено", а более объемно.

Share this post


Link to post
Share on other sites
Оверкаст подразумевает отсутствие просветов неба, что можно получить увеличив толщину слоя. Слой будет выглядеть не так "сплющено", а более объемно.
Немножко не так. Оверкаст значает, что во всех восьми секторах окружности видимой части неба над головой наблюдателя присутствует облачность. При этом, свкозь cirrus или cirrostratus вы будете замечательно видеть небо. Cirrocumulus вообще выглядит, как собрание отдельных малениких белых ватных шариков, между которыми достаточно большое расстояние, а толщина слоя совсем маленькая.

Ни в коем случае не утверждаю, что все расчеты с моей стороны верны, но мне бы не хотелось сейчас трогать коэффициенты, так как в августе рискуем получить облачность глубоко в стратосфере. Предлагаю сменить текстуры облачности, у FE вполне корректно слоистая представлена.

 

UPD 12.1.12 еще одна попытка.

Edited by Jazz

Share this post


Link to post
Share on other sites

Лог предыдущей версии, может что полезного в нём =) Собственно, вчера при полете из USPP в UUWW winds aloft processing был включен, температура на эшелоне менялась, но не резко и в плюс не уходила. А сегодня при полете из UUWW в ULAM резко стала подниматься. Пришлось отключить.

 

10:27:52 init begin FSATIS version 12.1.10

10:27:52 options online wx wind steps noaa

10:27:53 FSUIPC 3.990

10:27:56 wx init begin ===

10:27:57 XXXX 0mb

10:27:57 XXXX 0C -> 0C

10:27:58 wx cleared

10:28:00 closest station found UUWW (FS=UUWW)

10:28:01 received UUWW 121000Z 24005MPS 9999 SCT010 BKN022 OVC100 M01/M03 Q1004 19511045 NOSIG

10:28:01 load aloft 2822M05 3028M10 3030M15 3034M22 3043M33 3060M44 3164M55 3052M60 2946M61 2948M63

10:28:01 wx generated for UUWW UUWW 121000Z 24005MPS 9999 SCT010 BKN022 OVC100 M01/M03 Q1004 19511045 NOSIG

10:28:01 UUWW 1004mb

10:28:01 UUWW -1C -> -63C

10:28:03 KSC set to 45 based on wx

10:28:03 fs9 wx updated for UUWW

10:28:03 wx init end ===

10:28:03 wx step_20 begin

10:28:03 wx step_20 end

10:29:30 wx step_20 begin

10:29:30 wx step_20 end

10:30:33 wx step_20 begin

10:30:34 wx step_20 end

10:30:36 wx refresh begin $$$

10:30:36 closest station found UUWW (FS=UUWW)

10:30:37 received UUWW 121000Z 24005MPS 9999 SCT010 BKN022 OVC100 M01/M03 Q1004 19511045 NOSIG

10:30:37 load aloft 2822M05 3028M10 3030M15 3034M22 3043M33 3060M44 3165M55 3052M60 2946M61 2948M63

10:30:37 wx generated for UUWW UUWW 121000Z 24005MPS 9999 SCT010 BKN022 OVC100 M01/M03 Q1004 19511045 NOSIG

10:30:37 UUWW 1004mb

10:30:37 UUWW -1C -> -63C

10:30:39 KSC set to 45 based on wx

10:30:39 fs9 wx updated for UUWW

10:30:39 wx refresh end $$$

10:31:42 wx step_20 begin

10:31:42 wx step_20 end

10:32:45 wx step_20 begin

10:32:45 wx step_20 end

10:33:48 wx step_20 begin

10:33:48 wx step_20 end

10:35:42 wx step_20 begin

10:35:42 wx step_20 end

10:36:46 wx upd begin $$$

10:36:46 received UUWW 121000Z 24005MPS 9999 SCT010 BKN022 OVC100 M01/M03 Q1004 19511045 NOSIG

10:36:46 wx upd end $$$

10:36:46 wx step_20 begin

10:36:46 wx step_20 end

10:37:05 load atis begin %%%

10:37:07 atis

10:37:08 received UUWW 121000Z 24005MPS 9999 SCT010 BKN022 OVC100 M01/M03 Q1004 19511045 NOSIG

10:37:08 KSC set to 45 based on atis

10:37:12 load atis end %%%

10:37:17 wx step_20 begin

10:37:17 wx step_20 end

10:37:23 wx step_20 begin

10:37:23 wx step_20 end

10:37:30 wx step_20 begin

10:37:30 wx step_20 end

10:37:36 wx step_20 begin

10:37:36 wx step_20 end

10:37:43 wx upd begin $$$

10:37:43 received UUWW 121000Z 24005MPS 9999 SCT010 BKN022 OVC100 M01/M03 Q1004 19511045 NOSIG

10:37:43 wx upd end $$$

10:37:43 wx step_20 begin

10:37:43 wx step_20 end

10:37:49 wx step_20 begin

10:37:49 wx step_20 end

10:37:56 wx step_20 begin

10:37:56 wx step_20 end

10:38:02 wx step_20 begin

10:38:03 wx step_20 end

10:38:10 wx step_20 begin

10:38:10 wx step_20 end

10:38:16 wx upd begin $$$

10:38:16 received UUWW 121000Z 24005MPS 9999 SCT010 BKN022 OVC100 M01/M03 Q1004 19511045 NOSIG

10:38:16 wx upd end $$$

10:38:16 wx step_20 begin

10:38:17 wx step_20 end

10:38:23 wx step_20 begin

10:38:24 wx step_20 end

10:38:30 wx step_20 begin

10:38:30 wx step_20 end

10:38:36 wx step_20 begin

10:38:37 wx step_20 end

10:38:43 wx step_20 begin

10:38:43 wx step_20 end

10:38:50 wx upd begin $$$

10:38:50 received UUWW 121000Z 24005MPS 9999 SCT010 BKN022 OVC100 M01/M03 Q1004 19511045 NOSIG

10:38:50 wx upd end $$$

10:38:50 wx step_20 begin

10:38:50 wx step_20 end

10:38:57 wx step_20 begin

10:38:57 wx step_20 end

10:39:03 wx step_20 begin

10:39:03 wx step_20 end

10:39:10 wx step_20 begin

10:39:10 wx step_20 end

10:39:16 wx step_20 begin

10:39:16 wx step_20 end

10:39:23 wx upd begin $$$

10:39:23 received UUWW 121000Z 24005MPS 9999 SCT010 BKN022 OVC100 M01/M03 Q1004 19511045 NOSIG

10:39:23 wx upd end $$$

10:39:23 wx step_20 begin

10:39:23 wx step_20 end

10:39:30 wx step_20 begin

10:39:30 wx step_20 end

10:39:36 wx step_20 begin

10:39:36 wx step_20 end

10:39:43 wx step_20 begin

10:39:43 wx step_20 end

10:39:49 wx step_20 begin

10:39:49 wx step_20 end

10:39:56 wx upd begin $$$

10:39:56 received UUWW 121000Z 24005MPS 9999 SCT010 BKN022 OVC100 M01/M03 Q1004 19511045 NOSIG

10:39:56 wx upd end $$$

10:39:56 wx step_20 begin

10:39:57 wx step_20 end

10:40:03 wx step_20 begin

10:40:04 wx step_20 end

10:40:10 wx step_20 begin

10:40:10 wx step_20 end

10:40:17 wx step_20 begin

10:40:17 wx step_20 end

10:40:23 wx step_20 begin

10:40:23 wx step_20 end

10:40:30 wx upd begin $$$

10:40:30 received UUWW 121000Z 24005MPS 9999 SCT010 BKN022 OVC100 M01/M03 Q1004 19511045 NOSIG

10:40:30 wx upd end $$$

10:40:30 wx step_20 begin

10:40:30 wx step_20 end

10:40:37 wx step_20 begin

10:40:37 wx step_20 end

10:40:43 wx step_20 begin

10:40:44 wx step_20 end

10:40:50 wx step_20 begin

10:40:50 wx step_20 end

10:40:56 wx step_20 begin

10:40:57 wx step_20 end

10:41:03 wx upd begin $$$

10:41:03 received UUWW 121000Z 24005MPS 9999 SCT010 BKN022 OVC100 M01/M03 Q1004 19511045 NOSIG

10:41:03 wx upd end $$$

10:41:03 wx step_20 begin

10:41:03 wx step_20 end

10:41:10 wx step_20 begin

10:41:10 wx step_20 end

10:41:16 wx step_20 begin

10:41:17 wx step_20 end

10:41:23 wx step_20 begin

10:41:23 wx step_20 end

10:41:30 wx step_20 begin

10:41:30 wx step_20 end

10:41:37 wx upd begin $$$

10:41:37 received UUWW 121000Z 24005MPS 9999 SCT010 BKN022 OVC100 M01/M03 Q1004 19511045 NOSIG

10:41:37 wx upd end $$$

10:41:37 wx step_20 begin

10:41:37 wx step_20 end

10:41:44 wx step_20 begin

10:41:44 wx step_20 end

10:41:50 wx step_20 begin

10:41:50 wx step_20 end

10:41:56 wx step_20 begin

10:41:57 wx step_20 end

10:42:03 wx step_20 begin

10:42:03 wx step_20 end

10:42:10 wx upd begin $$$

10:42:10 received UUWW 121000Z 24005MPS 9999 SCT010 BKN022 OVC100 M01/M03 Q1004 19511045 NOSIG

10:42:10 wx upd end $$$

10:42:10 wx step_20 begin

10:42:10 wx step_20 end

10:42:17 wx step_20 begin

10:42:17 wx step_20 end

10:42:23 wx step_20 begin

10:42:24 wx step_20 end

10:42:30 wx step_20 begin

10:42:30 wx step_20 end

10:42:37 wx step_20 begin

10:42:37 wx step_20 end

10:42:43 wx upd begin $$$

10:42:43 received UUWW 121000Z 24005MPS 9999 SCT010 BKN022 OVC100 M01/M03 Q1004 19511045 NOSIG

10:42:43 wx upd end $$$

10:42:43 wx step_20 begin

10:42:44 wx step_20 end

10:42:50 wx step_20 begin

10:42:50 wx step_20 end

10:42:56 wx step_20 begin

10:42:56 wx step_20 end

10:43:03 wx step_20 begin

10:43:03 wx step_20 end

10:43:09 wx step_20 begin

10:43:09 wx step_20 end

10:43:16 wx upd begin $$$

10:43:16 received UUWW 121030Z 25005MPS 9999 SCT011 OVC036 M01/M03 Q1004 19511045 NOSIG

10:43:16 wx generated for UUWW UUWW 121030Z 25005MPS 9999 SCT011 OVC036 M01/M03 Q1004 19511045 NOSIG

10:43:16 UUWW 1004mb

10:43:16 UUWW -1C -> -63C

10:43:18 KSC set to 45 based on wx

10:43:18 fs9 wx updated for UUWW

10:43:18 wx upd end $$$

10:43:18 load atis begin %%%

10:43:18 atis

10:43:18 received UUWW 121030Z 25005MPS 9999 SCT011 OVC036 M01/M03 Q1004 19511045 NOSIG

10:43:18 KSC set to 45 based on atis

10:43:19 load atis end %%%

10:43:21 wx step begin

10:43:22 UUWW 1004mb

10:43:22 UUWW -1C -> -63C

10:43:23 KSC set to 45 based on wx

10:43:23 fs9 wx updated for UUWW

10:43:23 wx step end

10:43:25 wx step begin

10:43:26 UUWW 1004mb

10:43:26 UUWW -1C -> -63C

10:43:27 KSC set to 45 based on wx

10:43:27 fs9 wx updated for UUWW

10:43:27 wx step end

10:43:29 wx step begin

10:43:30 UUWW 1004mb

10:43:30 UUWW -1C -> -63C

10:43:31 KSC set to 45 based on wx

10:43:31 fs9 wx updated for UUWW

10:43:31 wx step end

10:43:33 wx step begin

10:43:34 UUWW 1004mb

10:43:34 UUWW -1C -> -63C

10:43:35 KSC set to 45 based on wx

10:43:35 fs9 wx updated for UUWW

10:43:35 wx step end

10:43:37 wx step begin

10:43:38 UUWW 1004mb

10:43:38 UUWW -1C -> -63C

10:43:39 KSC set to 45 based on wx

10:43:39 fs9 wx updated for UUWW

10:43:39 wx step end

10:43:42 wx step begin

10:43:42 UUWW 1004mb

10:43:42 UUWW -1C -> -63C

10:43:44 KSC set to 45 based on wx

10:43:44 fs9 wx updated for UUWW

10:43:44 wx step end

10:43:46 wx step begin

10:43:46 UUWW 1004mb

10:43:46 UUWW -1C -> -63C

10:43:48 KSC set to 45 based on wx

10:43:48 fs9 wx updated for UUWW

10:43:48 wx step end

10:43:50 wx step begin

10:43:50 UUWW 1004mb

10:43:50 UUWW -1C -> -63C

10:43:52 KSC set to 45 based on wx

10:43:52 fs9 wx updated for UUWW

10:43:52 wx step end

10:43:54 wx step begin

10:43:54 UUWW 1004mb

10:43:54 UUWW -1C -> -63C

10:43:56 KSC set to 45 based on wx

10:43:56 fs9 wx updated for UUWW

10:43:56 wx step end

10:43:58 wx step begin

10:43:59 UUWW 1004mb

10:43:59 UUWW -1C -> -63C

10:44:00 KSC set to 45 based on wx

10:44:00 fs9 wx updated for UUWW

10:44:00 wx step end

10:44:02 wx step begin

10:44:03 UUWW 1004mb

10:44:03 UUWW -1C -> -63C

10:44:04 KSC set to 45 based on wx

10:44:04 fs9 wx updated for UUWW

10:44:04 wx step end

10:44:07 wx step begin

10:44:07 UUWW 1004mb

10:44:07 UUWW -1C -> -63C

10:44:08 KSC set to 45 based on wx

10:44:08 fs9 wx updated for UUWW

10:44:08 wx step end

10:44:10 wx upd begin $$$

10:44:10 received UUWW 121030Z 25005MPS 9999 SCT011 OVC036 M01/M03 Q1004 19511045 NOSIG

10:44:10 wx upd end $$$

10:44:11 wx step begin

10:44:11 UUWW 1004mb

10:44:11 UUWW -1C -> -63C

10:44:13 KSC set to 45 based on wx

10:44:13 fs9 wx updated for UUWW

10:44:13 wx step end

10:44:15 wx step begin

10:44:15 UUWW 1004mb

10:44:15 UUWW -1C -> -63C

10:44:17 KSC set to 45 based on wx

10:44:17 fs9 wx updated for UUWW

10:44:17 wx step end

10:44:19 wx step begin

10:44:19 UUWW 1004mb

10:44:19 UUWW -1C -> -63C

10:44:21 KSC set to 45 based on wx

10:44:21 fs9 wx updated for UUWW

10:44:21 wx step end

10:44:23 wx step begin

10:44:23 UUWW 1004mb

10:44:23 UUWW -1C -> -63C

10:44:24 KSC set to 45 based on wx

10:44:24 fs9 wx updated for UUWW

10:44:24 wx step end

10:44:27 wx step begin

10:44:27 UUWW 1004mb

10:44:27 UUWW -1C -> -63C

10:44:29 KSC set to 45 based on wx

10:44:29 fs9 wx updated for UUWW

10:44:29 wx step end

10:44:31 wx step begin

10:44:31 UUWW 1004mb

10:44:31 UUWW -1C -> -63C

10:44:33 KSC set to 45 based on wx

10:44:33 fs9 wx updated for UUWW

10:44:33 wx step end

10:44:35 wx step begin

10:44:35 UUWW 1004mb

10:44:36 UUWW -1C -> -63C

10:44:37 KSC set to 45 based on wx

10:44:37 fs9 wx updated for UUWW

10:44:37 wx step end

10:44:39 wx step begin

10:44:40 UUWW 1004mb

10:44:40 UUWW -1C -> -63C

10:44:41 KSC set to 45 based on wx

10:44:41 fs9 wx updated for UUWW

10:44:41 wx step end

10:44:44 wx step begin

10:44:44 UUWW 1004mb

10:44:44 UUWW -1C -> -63C

10:44:46 KSC set to 45 based on wx

10:44:46 fs9 wx updated for UUWW

10:44:46 wx step end

10:44:48 wx step begin

10:44:48 UUWW 1004mb

10:44:48 UUWW -1C -> -63C

10:44:49 KSC set to 45 based on wx

10:44:49 fs9 wx updated for UUWW

10:44:49 wx step end

10:44:52 wx step begin

10:44:52 UUWW 1004mb

10:44:52 UUWW -1C -> -63C

10:44:54 KSC set to 45 based on wx

10:44:54 fs9 wx updated for UUWW

10:44:54 wx step end

10:44:56 wx step begin

10:44:56 UUWW 1004mb

10:44:56 UUWW -1C -> -63C

10:44:58 KSC set to 45 based on wx

10:44:58 fs9 wx updated for UUWW

10:44:58 wx step end

10:45:00 wx step begin

10:45:00 UUWW 1004mb

10:45:00 UUWW -1C -> -63C

10:45:02 KSC set to 45 based on wx

10:45:02 fs9 wx updated for UUWW

10:45:02 wx step end

10:45:02 wx upd begin $$$

10:45:02 received UUWW 121030Z 25005MPS 9999 SCT011 OVC036 M01/M03 Q1004 19511045 NOSIG

10:45:02 wx upd end $$$

10:45:05 wx step begin

10:45:05 UUWW 1004mb

10:45:05 UUWW -1C -> -63C

10:45:06 KSC set to 45 based on wx

10:45:06 fs9 wx updated for UUWW

10:45:06 wx step end

10:45:09 wx step begin

10:45:09 UUWW 1004mb

10:45:09 UUWW -1C -> -63C

10:45:10 KSC set to 45 based on wx

10:45:10 fs9 wx updated for UUWW

10:45:10 wx step end

10:45:13 wx step begin

10:45:13 UUWW 1004mb

10:45:13 UUWW -1C -> -63C

10:45:15 KSC set to 45 based on wx

10:45:15 fs9 wx updated for UUWW

10:45:15 wx step end

10:45:17 wx step begin

10:45:18 UUWW 1004mb

10:45:18 UUWW -1C -> -63C

10:45:19 KSC set to 45 based on wx

10:45:19 fs9 wx updated for UUWW

10:45:19 wx step end

10:45:21 wx step begin

10:45:21 UUWW 1004mb

10:45:22 UUWW -1C -> -63C

10:45:23 KSC set to 45 based on wx

10:45:23 fs9 wx updated for UUWW

10:45:23 wx step end

10:45:25 wx step begin

10:45:25 UUWW 1004mb

10:45:25 UUWW -1C -> -63C

10:45:27 KSC set to 45 based on wx

10:45:27 fs9 wx updated for UUWW

10:45:27 wx step end

10:45:29 wx step begin

10:45:30 UUWW 1004mb

10:45:30 UUWW -1C -> -63C

10:45:31 KSC set to 45 based on wx

10:45:31 fs9 wx updated for UUWW

10:45:31 wx step end

10:45:34 wx step begin

10:45:34 UUWW 1004mb

10:45:34 UUWW -1C -> -63C

10:45:35 KSC set to 45 based on wx

10:45:35 fs9 wx updated for UUWW

10:45:35 wx step end

10:45:38 wx step begin

10:45:38 UUWW 1004mb

10:45:38 UUWW -1C -> -63C

10:45:40 KSC set to 45 based on wx

10:45:40 fs9 wx updated for UUWW

10:45:40 wx step end

10:45:42 wx step begin

10:45:42 UUWW 1004mb

10:45:42 UUWW -1C -> -63C

10:45:44 KSC set to 45 based on wx

10:45:44 fs9 wx updated for UUWW

10:45:44 wx step end

10:45:46 wx step begin

10:45:46 UUWW 1004mb

10:45:46 UUWW -1C -> -63C

10:45:48 KSC set to 45 based on wx

10:45:48 fs9 wx updated for UUWW

10:45:48 wx step end

10:45:50 wx step begin

10:45:51 UUWW 1004mb

10:45:51 UUWW -1C -> -63C

10:45:52 KSC set to 45 based on wx

10:45:52 fs9 wx updated for UUWW

10:45:52 wx step end

10:45:54 wx upd begin $$$

10:45:54 received UUWW 121030Z 25005MPS 9999 SCT011 OVC036 M01/M03 Q1004 19511045 NOSIG

10:45:54 wx upd end $$$

10:45:55 wx step begin

10:45:55 UUWW 1004mb

10:45:55 UUWW -1C -> -63C

10:45:56 KSC set to 45 based on wx

10:45:56 fs9 wx updated for UUWW

10:45:56 wx step end

10:45:59 wx step begin

10:45:59 UUWW 1004mb

10:45:59 UUWW -1C -> -63C

10:46:00 KSC set to 45 based on wx

10:46:00 fs9 wx updated for UUWW

10:46:00 wx step end

10:46:03 wx step begin

10:46:03 UUWW 1004mb

10:46:03 UUWW -1C -> -63C

10:46:05 KSC set to 45 based on wx

10:46:05 fs9 wx updated for UUWW

10:46:05 wx step end

10:46:11 wx step_20 begin

10:46:11 wx step_20 end

10:46:18 wx step_20 begin

10:46:18 wx step_20 end

10:46:24 wx step_20 begin

10:46:24 wx step_20 end

10:46:30 wx step_20 begin

10:46:30 wx step_20 end

10:46:31 wx upd begin $$$

10:46:31 received UUWW 121030Z 25005MPS 9999 SCT011 OVC036 M01/M03 Q1004 19511045 NOSIG

10:46:31 wx upd end $$$

10:46:36 wx step_20 begin

10:46:37 wx step_20 end

10:46:43 wx step_20 begin

10:46:43 wx step_20 end

10:46:49 wx step_20 begin

10:46:50 wx step_20 end

10:46:56 wx step_20 begin

10:46:56 wx step_20 end

10:47:02 wx step_20 begin

10:47:03 wx step_20 end

10:47:03 wx upd begin $$$

10:47:03 received UUWW 121030Z 25005MPS 9999 SCT011 OVC036 M01/M03 Q1004 19511045 NOSIG

10:47:03 wx upd end $$$

10:47:09 wx step_20 begin

10:47:10 wx step_20 end

10:47:16 wx step_20 begin

10:47:16 wx step_20 end

10:47:23 wx step_20 begin

10:47:23 wx step_20 end

10:47:29 wx step_20 begin

10:47:29 wx step_20 end

10:47:35 wx step_20 begin

10:47:35 wx step_20 end

10:47:36 wx upd begin $$$

10:47:36 received UUWW 121030Z 25005MPS 9999 SCT011 OVC036 M01/M03 Q1004 19511045 NOSIG

10:47:36 wx upd end $$$

10:47:42 wx step_20 begin

10:47:42 wx step_20 end

10:47:48 wx step_20 begin

10:47:49 wx step_20 end

10:47:55 wx step_20 begin

10:47:55 wx step_20 end

10:48:01 wx step_20 begin

10:48:01 wx step_20 end

10:48:08 wx step_20 begin

10:48:08 wx step_20 end

10:48:09 wx upd begin $$$

10:48:09 received UUWW 121030Z 25005MPS 9999 SCT011 OVC036 M01/M03 Q1004 19511045 NOSIG

10:48:09 wx upd end $$$

10:48:15 wx step_20 begin

10:48:15 wx step_20 end

10:48:21 wx step_20 begin

10:48:21 wx step_20 end

10:48:28 wx step_20 begin

10:48:28 wx step_20 end

10:48:34 wx step_20 begin

10:48:34 wx step_20 end

10:48:41 wx step_20 begin

10:48:41 wx step_20 end

10:48:41 wx upd begin $$$

10:48:41 received UUWW 121030Z 25005MPS 9999 SCT011 OVC036 M01/M03 Q1004 19511045 NOSIG

10:48:41 wx upd end $$$

10:48:47 wx step_20 begin

10:48:47 wx step_20 end

10:48:53 wx step_20 begin

10:48:54 wx step_20 end

10:49:00 wx step_20 begin

10:49:00 wx step_20 end

10:49:06 wx step_20 begin

10:49:06 wx step_20 end

10:49:12 wx step_20 begin

10:49:13 wx step_20 end

10:49:13 wx upd begin $$$

10:49:13 received UUWW 121030Z 25005MPS 9999 SCT011 OVC036 M01/M03 Q1004 19511045 NOSIG

10:49:13 wx upd end $$$

10:49:19 wx step_20 begin

10:49:19 wx step_20 end

10:49:25 wx step_20 begin

10:49:25 wx step_20 end

10:49:31 wx step_20 begin

10:49:32 wx step_20 end

10:49:38 wx step_20 begin

10:49:38 wx step_20 end

10:49:44 wx step_20 begin

10:49:44 wx step_20 end

10:49:45 wx upd begin $$$

10:49:45 received UUWW 121030Z 25005MPS 9999 SCT011 OVC036 M01/M03 Q1004 19511045 NOSIG

10:49:45 wx upd end $$$

10:49:51 wx step_20 begin

10:49:51 wx step_20 end

10:49:57 wx step_20 begin

10:49:57 wx step_20 end

10:50:03 wx step_20 begin

10:50:03 wx step_20 end

10:50:09 wx step_20 begin

10:50:09 wx step_20 end

10:50:16 wx step_20 begin

10:50:16 wx step_20 end

10:50:16 wx upd begin $$$

10:50:16 received UUWW 121030Z 25005MPS 9999 SCT011 OVC036 M01/M03 Q1004 19511045 NOSIG

10:50:16 wx upd end $$$

10:50:22 wx step_20 begin

10:50:22 wx step_20 end

10:50:28 wx step_20 begin

10:50:29 wx step_20 end

10:50:35 wx step_20 begin

10:50:35 wx step_20 end

10:50:41 wx step_20 begin

10:50:41 wx step_20 end

10:50:47 wx step_20 begin

10:50:47 wx step_20 end

10:50:48 wx upd begin $$$

10:50:48 received UUWW 121030Z 25005MPS 9999 SCT011 OVC036 M01/M03 Q1004 19511045 NOSIG

10:50:48 wx upd end $$$

10:50:54 wx step_20 begin

10:50:54 wx step_20 end

10:51:00 wx step_20 begin

10:51:00 wx step_20 end

10:51:06 wx step_20 begin

10:51:06 wx step_20 end

10:51:12 wx step_20 begin

10:51:13 wx step_20 end

10:51:19 wx step_20 begin

10:51:19 wx step_20 end

10:51:19 wx upd begin $$$

10:51:19 received UUWW 121030Z 25005MPS 9999 SCT011 OVC036 M01/M03 Q1004 19511045 NOSIG

10:51:19 wx upd end $$$

10:51:25 wx step_20 begin

10:51:25 wx step_20 end

10:51:31 wx step_20 begin

10:51:32 wx step_20 end

10:51:38 wx step_20 begin

10:51:38 wx step_20 end

10:51:44 wx step_20 begin

10:51:44 wx step_20 end

10:51:50 wx step_20 begin

10:51:50 wx step_20 end

10:51:51 wx upd begin $$$

10:51:51 received UUWW 121030Z 25005MPS 9999 SCT011 OVC036 M01/M03 Q1004 19511045 NOSIG

10:51:51 wx upd end $$$

10:51:57 wx step_20 begin

10:51:57 wx step_20 end

10:52:03 wx step_20 begin

10:52:03 wx step_20 end

10:52:09 wx step_20 begin

10:52:09 wx step_20 end

10:52:16 wx step_20 begin

10:52:16 wx step_20 end

10:52:22 wx step_20 begin

10:52:22 wx step_20 end

10:52:22 wx upd begin $$$

10:52:23 received UUWW 121030Z 25005MPS 9999 SCT011 OVC036 M01/M03 Q1004 19511045 NOSIG

10:52:23 wx upd end $$$

10:52:28 wx step_20 begin

10:52:29 wx step_20 end

10:52:35 wx step_20 begin

10:52:35 wx step_20 end

10:52:41 wx step_20 begin

10:52:41 wx step_20 end

10:52:47 wx step_20 begin

10:52:47 wx step_20 end

10:52:53 wx step_20 begin

10:52:54 wx step_20 end

10:52:54 wx upd begin $$$

10:52:54 received UUWW 121030Z 25005MPS 9999 SCT011 OVC036 M01/M03 Q1004 19511045 NOSIG

10:52:54 wx upd end $$$

10:53:00 wx step_20 begin

10:53:00 wx step_20 end

10:53:06 wx step_20 begin

10:53:06 wx step_20 end

10:53:12 wx step_20 begin

10:53:13 wx step_20 end

10:53:19 wx step_20 begin

10:53:19 wx step_20 end

10:53:25 wx step_20 begin

10:53:26 wx step_20 end

10:53:26 wx upd begin $$$

10:53:26 received UUWW 121030Z 25005MPS 9999 SCT011 OVC036 M01/M03 Q1004 19511045 NOSIG

10:53:26 wx upd end $$$

10:53:32 wx step_20 begin

10:53:32 wx step_20 end

10:53:38 wx step_20 begin

10:53:38 wx step_20 end

10:53:44 wx step_20 begin

10:53:45 wx step_20 end

10:53:51 wx step_20 begin

10:53:51 wx step_20 end

10:53:57 wx step_20 begin

10:53:58 wx step_20 end

10:53:58 wx upd begin $$$

10:53:58 received UUWW 121030Z 25005MPS 9999 SCT011 OVC036 M01/M03 Q1004 19511045 NOSIG

10:53:58 wx upd end $$$

10:54:04 wx step_20 begin

10:54:05 wx step_20 end

10:54:11 wx step_20 begin

10:54:11 wx step_20 end

10:54:17 wx step_20 begin

10:54:17 wx step_20 end

10:54:24 wx step_20 begin

10:54:24 wx step_20 end

10:54:30 wx step_20 begin

10:54:30 wx step_20 end

10:54:31 wx upd begin $$$

10:54:31 received UUWW 121030Z 25005MPS 9999 SCT011 OVC036 M01/M03 Q1004 19511045 NOSIG

10:54:31 wx upd end $$$

10:54:37 wx step_20 begin

10:54:37 wx step_20 end

10:54:43 wx step_20 begin

10:54:43 wx step_20 end

10:54:49 wx step_20 begin

10:54:49 wx step_20 end

10:54:55 wx step_20 begin

10:54:55 wx step_20 end

10:55:02 wx step_20 begin

10:55:02 wx step_20 end

10:55:02 wx upd begin $$$

10:55:02 received UUWW 121030Z 25005MPS 9999 SCT011 OVC036 M01/M03 Q1004 19511045 NOSIG

10:55:02 wx upd end $$$

10:55:08 wx step_20 begin

10:55:09 wx step_20 end

10:55:15 wx step_20 begin

10:55:15 wx step_20 end

10:55:21 wx step_20 begin

10:55:21 wx step_20 end

10:55:27 wx step_20 begin

10:55:28 wx step_20 end

10:55:34 wx step_20 begin

10:55:34 wx step_20 end

10:55:34 wx upd begin $$$

10:55:35 received UUWW 121030Z 25005MPS 9999 SCT011 OVC036 M01/M03 Q1004 19511045 NOSIG

10:55:35 wx upd end $$$

10:55:41 wx step_20 begin

10:55:41 wx step_20 end

10:55:47 wx step_20 begin

10:55:47 wx step_20 end

10:55:53 wx step_20 begin

10:55:53 wx step_20 end

10:55:59 wx step_20 begin

10:55:59 wx step_20 end

10:56:06 wx step_20 begin

10:56:06 wx step_20 end

10:56:06 wx upd begin $$$

10:56:06 received UUWW 121030Z 25005MPS 9999 SCT011 OVC036 M01/M03 Q1004 19511045 NOSIG

10:56:06 wx upd end $$$

10:56:12 wx step_20 begin

10:56:12 wx step_20 end

10:56:18 wx step_20 begin

10:56:19 wx step_20 end

10:56:25 wx step_20 begin

10:56:25 wx step_20 end

10:56:31 wx step_20 begin

10:56:31 wx step_20 end

10:56:37 wx step_20 begin

10:56:37 wx step_20 end

10:56:38 wx upd begin $$$

10:56:38 received UUWW 121030Z 25005MPS 9999 SCT011 OVC036 M01/M03 Q1004 19511045 NOSIG

10:56:38 wx upd end $$$

10:56:44 wx step_20 begin

10:56:44 wx step_20 end

10:56:50 wx step_20 begin

10:56:50 wx step_20 end

10:56:57 wx step_20 begin

10:56:57 wx step_20 end

10:57:03 wx step_20 begin

10:57:03 wx step_20 end

10:57:09 wx step_20 begin

10:57:10 wx step_20 end

10:57:10 wx upd begin $$$

10:57:10 received UUWW 121030Z 25005MPS 9999 SCT011 OVC036 M01/M03 Q1004 19511045 NOSIG

10:57:10 wx upd end $$$

10:57:16 wx step_20 begin

10:57:16 wx step_20 end

10:57:22 wx step_20 begin

10:57:22 wx step_20 end

10:57:28 wx step_20 begin

10:57:29 wx step_20 end

10:57:35 wx step_20 begin

10:57:35 wx step_20 end

10:57:41 wx step_20 begin

10:57:41 wx step_20 end

10:57:41 wx upd begin $$$

10:57:42 received UUWW 121030Z 25005MPS 9999 SCT011 OVC036 M01/M03 Q1004 19511045 NOSIG

10:57:42 wx upd end $$$

10:57:47 wx step_20 begin

10:57:48 wx step_20 end

10:57:54 wx step_20 begin

10:57:54 wx step_20 end

10:58:00 wx step_20 begin

10:58:00 wx step_20 end

10:58:06 wx step_20 begin

10:58:06 wx step_20 end

10:58:12 wx step_20 begin

10:58:13 wx step_20 end

10:58:13 wx upd begin $$$

10:58:13 received UUWW 121030Z 25005MPS 9999 SCT011 OVC036 M01/M03 Q1004 19511045 NOSIG

10:58:13 wx upd end $$$

10:58:19 wx step_20 begin

10:58:19 wx step_20 end

10:58:25 wx step_20 begin

10:58:25 wx step_20 end

10:58:32 wx step_20 begin

10:58:32 wx step_20 end

10:58:38 wx step_20 begin

10:58:38 wx step_20 end

10:58:44 wx step_20 begin

10:58:45 wx step_20 end

10:58:45 wx upd begin $$$

10:58:45 received UUWW 121030Z 25005MPS 9999 SCT011 OVC036 M01/M03 Q1004 19511045 NOSIG

10:58:45 wx upd end $$$

10:58:51 wx step_20 begin

10:58:51 wx step_20 end

10:58:57 wx step_20 begin

10:58:57 wx step_20 end

10:59:03 wx step_20 begin

10:59:04 wx step_20 end

10:59:10 wx step_20 begin

10:59:10 wx step_20 end

10:59:16 wx step_20 begin

10:59:16 wx step_20 end

10:59:16 wx upd begin $$$

10:59:17 received UUWW 121030Z 25005MPS 9999 SCT011 OVC036 M01/M03 Q1004 19511045 NOSIG

10:59:17 wx upd end $$$

10:59:22 wx step_20 begin

10:59:23 wx step_20 end

10:59:29 wx step_20 begin

10:59:29 wx step_20 end

10:59:35 wx step_20 begin

10:59:35 wx step_20 end

10:59:41 wx step_20 begin

10:59:42 wx step_20 end

10:59:48 wx step_20 begin

10:59:48 wx step_20 end

10:59:48 wx upd begin $$$

10:59:48 received UUWW 121030Z 25005MPS 9999 SCT011 OVC036 M01/M03 Q1004 19511045 NOSIG

10:59:48 wx upd end $$$

10:59:54 wx step_20 begin

10:59:55 wx step_20 end

11:00:01 wx step_20 begin

11:00:01 wx step_20 end

11:00:07 wx step_20 begin

11:00:07 wx step_20 end

11:00:13 wx step_20 begin

11:00:13 wx step_20 end

11:00:19 wx step_20 begin

11:00:19 wx step_20 end

11:00:20 wx upd begin $$$

11:00:20 received UUWW 121030Z 25005MPS 9999 SCT011 OVC036 M01/M03 Q1004 19511045 NOSIG

11:00:20 wx upd end $$$

11:00:26 wx step_20 begin

11:00:26 wx step_20 end

11:00:32 wx step_20 begin

11:00:32 wx step_20 end

11:00:38 wx step_20 begin

11:00:39 wx step_20 end

11:00:45 wx step_20 begin

11:00:45 wx step_20 end

11:00:53 wx step_20 begin

11:00:53 wx step_20 end

11:00:53 wx upd begin $$$

11:00:54 received UUWW 121030Z 25005MPS 9999 SCT011 OVC036 M01/M03 Q1004 19511045 NOSIG

11:00:54 wx upd end $$$

11:01:00 wx step_20 begin

11:01:00 wx step_20 end

11:01:06 wx step_20 begin

11:01:06 wx step_20 end

11:01:14 wx step_20 begin

11:01:14 wx step_20 end

11:01:20 wx step_20 begin

11:01:20 wx step_20 end

11:01:26 wx step_20 begin

11:01:27 wx step_20 end

11:01:27 wx upd begin $$$

11:01:27 received UUWW 121030Z 25005MPS 9999 SCT011 OVC036 M01/M03 Q1004 19511045 NOSIG

11:01:27 wx upd end $$$

11:01:33 wx step_20 begin

11:01:33 wx step_20 end

11:01:40 wx step_20 begin

11:01:40 wx step_20 end

11:01:46 wx step_20 begin

11:01:46 wx step_20 end

11:01:52 wx step_20 begin

11:01:52 closest station found UUEE (FS=UUEE)

11:01:53 received UUEE 121030Z 26007MPS 9999 DRSN BKN017CB M01/M01 Q1003 NOSIG RMK 75420349 25420349

11:01:53 load aloft 2822M05 3029M10 3031M15 3035M22 3043M33 3162M44 3166M55 3153M60 3047M61 2948M63

11:01:53 wx generated for UUEE UUEE 121030Z 26007MPS 9999 DRSN BKN017CB M01/M01 Q1003 NOSIG RMK 75420349 25420349

11:01:53 UUEE 1003mb

11:01:53 UUEE -1C -> -63C

11:01:55 KSC set to 49 based on wx

11:01:55 fs9 wx updated for UUEE

11:01:55 wx step_20 end

11:02:03 wx step_20 begin

11:02:03 wx step_20 end

11:02:09 wx step_20 begin

11:02:10 wx step_20 end

11:02:16 wx step_20 begin

11:02:16 wx step_20 end

11:02:22 wx step_20 begin

11:02:23 wx step_20 end

11:02:29 wx upd begin $$$

11:02:29 received UUEE 121030Z 26007MPS 9999 DRSN BKN017CB M01/M01 Q1003 NOSIG RMK 75420349 25420349

11:02:29 wx upd end $$$

11:02:29 wx step_20 begin

11:02:29 wx step_20 end

11:02:36 wx step_20 begin

11:02:36 wx step_20 end

11:02:42 wx step_20 begin

11:02:42 wx step_20 end

11:02:48 wx step_20 begin

11:02:48 wx step_20 end

11:02:54 wx step_20 begin

11:02:55 wx step_20 end

11:03:01 wx upd begin $$$

11:03:01 received UUEE 121030Z 26007MPS 9999 DRSN BKN017CB M01/M01 Q1003 NOSIG RMK 75420349 25420349

11:03:01 wx upd end $$$

11:03:01 wx step_20 begin

11:03:01 wx step_20 end

11:03:07 wx step_20 begin

11:03:07 wx step_20 end

11:03:14 wx step_20 begin

11:03:14 wx step_20 end

11:03:20 wx step_20 begin

11:03:20 wx step_20 end

11:03:26 wx step_20 begin

11:03:27 wx step_20 end

11:03:33 wx upd begin $$$

11:03:33 received UUEE 121030Z 26007MPS 9999 DRSN BKN017CB M01/M01 Q1003 NOSIG RMK 75420349 25420349

11:03:33 wx upd end $$$

11:03:33 wx step_20 begin

11:03:33 wx step_20 end

11:03:39 wx step_20 begin

11:03:40 wx step_20 end

11:03:46 wx step_20 begin

11:03:46 wx step_20 end

11:03:52 wx step_20 begin

11:03:52 wx step_20 end

11:03:58 wx step_20 begin

11:03:59 wx step_20 end

11:04:05 wx upd begin $$$

11:04:05 received UUEE 121030Z 26007MPS 9999 DRSN BKN017CB M01/M01 Q1003 NOSIG RMK 75420349 25420349

11:04:05 wx upd end $$$

11:04:05 wx step_20 begin

11:04:05 wx step_20 end

11:04:11 wx step_20 begin

11:04:12 wx step_20 end

11:04:18 wx step_20 begin

11:04:18 wx step_20 end

11:04:24 wx step_20 begin

11:04:24 wx step_20 end

11:04:30 wx step_20 begin

11:04:31 wx step_20 end

11:04:37 wx upd begin $$$

11:04:37 received UUEE 121030Z 26007MPS 9999 DRSN BKN017CB M01/M01 Q1003 NOSIG RMK 75420349 25420349

11:04:37 wx upd end $$$

11:04:37 wx step_20 begin

11:04:37 wx step_20 end

11:04:44 wx step_20 begin

11:04:44 wx step_20 end

11:04:50 wx step_20 begin

11:04:51 wx step_20 end

11:04:57 wx step_20 begin

11:04:57 wx step_20 end

11:05:03 wx step_20 begin

11:05:03 wx step_20 end

11:05:10 wx upd begin $$$

11:05:10 received UUEE 121030Z 26007MPS 9999 DRSN BKN017CB M01/M01 Q1003 NOSIG RMK 75420349 25420349

11:05:10 wx upd end $$$

11:05:10 wx step_20 begin

11:05:10 wx step_20 end

11:05:17 wx step_20 begin

11:05:17 wx step_20 end

11:05:23 wx step_20 begin

11:05:23 wx step_20 end

11:05:30 wx step_20 begin

11:05:30 wx step_20 end

11:05:36 wx step_20 begin

11:05:36 wx step_20 end

11:05:42 wx upd begin $$$

11:05:42 received UUEE 121030Z 26007MPS 9999 DRSN BKN017CB M01/M01 Q1003 NOSIG RMK 75420349 25420349

11:05:42 wx upd end $$$

11:05:42 wx step_20 begin

11:05:43 wx step_20 end

11:05:49 wx step_20 begin

11:05:49 wx step_20 end

11:05:55 wx step_20 begin

11:05:55 wx step_20 end

11:06:02 wx step_20 begin

11:06:02 wx step_20 end

11:06:08 wx step_20 begin

11:06:08 wx step_20 end

11:06:14 wx upd begin $$$

11:06:15 received UUEE 121030Z 26007MPS 9999 DRSN BKN017CB M01/M01 Q1003 NOSIG RMK 75420349 25420349

11:06:15 wx upd end $$$

11:06:15 wx step_20 begin

11:06:15 wx step_20 end

11:06:21 wx step_20 begin

11:06:22 wx step_20 end

11:06:28 wx step_20 begin

11:06:28 wx step_20 end

11:06:35 wx step_20 begin

11:06:35 wx step_20 end

11:06:41 wx step_20 begin

11:06:41 wx step_20 end

11:06:47 wx upd begin $$$

11:06:48 received UUEE 121030Z 26007MPS 9999 DRSN BKN017CB M01/M01 Q1003 NOSIG RMK 75420349 25420349

11:06:48 wx upd end $$$

11:06:48 wx step_20 begin

11:06:48 wx step_20 end

11:06:54 wx step_20 begin

11:06:54 wx step_20 end

11:07:00 wx step_20 begin

11:07:01 wx step_20 end

11:07:07 wx step_20 begin

11:07:07 wx step_20 end

11:07:13 wx step_20 begin

11:07:13 wx step_20 end

11:07:19 wx upd begin $$$

11:07:19 received UUEE 121030Z 26007MPS 9999 DRSN BKN017CB M01/M01 Q1003 NOSIG RMK 75420349 25420349

11:07:19 wx upd end $$$

11:07:19 wx step_20 begin

11:07:19 wx step_20 end

11:07:26 wx step_20 begin

11:07:26 wx step_20 end

11:07:32 wx step_20 begin

11:07:32 wx step_20 end

11:07:38 wx step_20 begin

11:07:38 wx step_20 end

11:07:45 wx step_20 begin

11:07:45 wx step_20 end

11:07:51 wx upd begin $$$

11:07:51 received UUEE 121030Z 26007MPS 9999 DRSN BKN017CB M01/M01 Q1003 NOSIG RMK 75420349 25420349

11:07:51 wx upd end $$$

11:07:51 wx step_20 begin

11:07:51 wx step_20 end

11:07:58 wx step_20 begin

11:07:58 wx step_20 end

11:08:05 wx step_20 begin

11:08:05 wx step_20 end

11:08:11 wx step_20 begin

11:08:11 wx step_20 end

11:08:17 wx step_20 begin

11:08:17 wx step_20 end

11:08:23 wx upd begin $$$

11:08:23 received UUEE 121030Z 26007MPS 9999 DRSN BKN017CB M01/M01 Q1003 NOSIG RMK 75420349 25420349

11:08:23 wx upd end $$$

11:08:23 wx step_20 begin

11:08:24 wx step_20 end

11:08:30 wx step_20 begin

11:08:30 wx step_20 end

11:08:37 wx step_20 begin

11:08:37 wx step_20 end

11:08:46 wx step_20 begin

11:08:46 wx step_20 end

11:08:53 wx step_20 begin

11:08:53 wx step_20 end

11:08:59 wx upd begin $$$

11:08:59 received UUEE 121030Z 26007MPS 9999 DRSN BKN017CB M01/M01 Q1003 NOSIG RMK 75420349 25420349

11:08:59 wx upd end $$$

11:08:59 wx step_20 begin

11:09:00 wx step_20 end

11:09:06 wx step_20 begin

11:09:06 wx step_20 end

11:09:12 wx step_20 begin

11:09:12 wx step_20 end

11:09:19 wx step_20 begin

11:09:19 wx step_20 end

11:09:25 wx step_20 begin

11:09:26 wx step_20 end

11:09:32 wx upd begin $$$

11:09:32 received UUEE 121100Z 25007MPS 9999 DRSN BKN018CB M01/M02 Q1003 NOSIG RMK 75420349 25420349

11:09:32 wx generated for UUEE UUEE 121100Z 25007MPS 9999 DRSN BKN018CB M01/M02 Q1003 NOSIG RMK 75420349 25420349

11:09:32 UUEE 1003mb

11:09:32 UUEE -1C -> -63C

11:09:34 KSC set to 49 based on wx

11:09:34 fs9 wx updated for UUEE

11:09:34 wx upd end $$$

11:09:34 wx step_20 begin

11:09:34 wx step_20 end

11:09:41 wx step_20 begin

11:09:42 wx step_20 end

11:09:48 wx step_20 begin

11:09:48 wx step_20 end

11:09:54 wx step_20 begin

11:09:54 wx step_20 end

11:10:00 wx step_20 begin

11:10:01 wx step_20 end

11:10:07 wx upd begin $$$

11:10:07 received UUEE 121100Z 25007MPS 9999 DRSN BKN018CB M01/M02 Q1003 NOSIG RMK 75420349 25420349

11:10:07 wx upd end $$$

11:10:07 wx step_20 begin

11:10:07 wx step_20 end

11:10:14 wx step_20 begin

11:10:14 wx step_20 end

11:10:20 wx step_20 begin

11:10:20 wx step_20 end

11:10:26 wx step_20 begin

11:10:26 wx step_20 end

11:10:32 wx step_20 begin

11:10:32 wx step_20 end

11:10:39 wx upd begin $$$

11:10:39 received UUEE 121100Z 25007MPS 9999 DRSN BKN018CB M01/M02 Q1003 NOSIG RMK 75420349 25420349

11:10:39 wx upd end $$$

11:10:39 wx step_20 begin

11:10:39 wx step_20 end

11:10:45 wx step_20 begin

11:10:46 wx step_20 end

11:10:53 wx step_20 begin

11:10:53 wx step_20 end

11:10:59 wx step_20 begin

11:10:59 wx step_20 end

11:11:05 wx step_20 begin

11:11:06 wx step_20 end

11:11:12 wx upd begin $$$

11:11:12 received UUEE 121100Z 25007MPS 9999 DRSN BKN018CB M01/M02 Q1003 NOSIG RMK 75420349 25420349

11:11:12 wx upd end $$$

11:11:12 wx step_20 begin

11:11:12 wx step_20 end

11:11:19 wx step_20 begin

11:11:19 wx step_20 end

11:11:25 wx step_20 begin

11:11:25 wx step_20 end

11:11:31 wx step_20 begin

11:11:31 wx step_20 end

11:11:37 wx step_20 begin

11:11:38 wx step_20 end

11:11:44 wx upd begin $$$

11:11:44 received UUEE 121100Z 25007MPS 9999 DRSN BKN018CB M01/M02 Q1003 NOSIG RMK 75420349 25420349

11:11:44 wx upd end $$$

11:11:44 wx step_20 begin

11:11:44 wx step_20 end

11:11:50 wx step_20 begin

11:11:51 wx step_20 end

11:11:57 wx step_20 begin

11:11:57 wx step_20 end

11:12:03 wx step_20 begin

11:12:03 wx step_20 end

11:12:09 wx step_20 begin

11:12:09 wx step_20 end

11:12:15 wx upd begin $$$

11:12:16 received UUEE 121100Z 25007MPS 9999 DRSN BKN018CB M01/M02 Q1003 NOSIG RMK 75420349 25420349

11:12:16 wx upd end $$$

11:12:16 wx step_20 begin

11:12:16 wx step_20 end

11:12:22 wx step_20 begin

11:12:23 wx step_20 end

11:12:29 wx step_20 begin

11:12:29 wx step_20 end

11:12:35 wx step_20 begin

11:12:35 wx step_20 end

11:12:41 wx step_20 begin

11:12:42 wx step_20 end

11:12:48 wx upd begin $$$

11:12:48 received UUEE 121100Z 25007MPS 9999 DRSN BKN018CB M01/M02 Q1003 NOSIG RMK 75420349 25420349

11:12:48 wx upd end $$$

11:12:48 wx step_20 begin

11:12:48 wx step_20 end

11:12:54 wx step_20 begin

11:12:55 wx step_20 end

11:13:01 wx step_20 begin

11:13:01 wx step_20 end

11:13:07 wx step_20 begin

11:13:07 wx step_20 end

11:13:13 wx step_20 begin

11:13:13 wx step_20 end

11:13:19 wx upd begin $$$

11:13:20 received UUEE 121100Z 25007MPS 9999 DRSN BKN018CB M01/M02 Q1003 NOSIG RMK 75420349 25420349

11:13:20 wx upd end $$$

11:13:20 wx step_20 begin

11:13:20 wx step_20 end

11:13:26 wx step_20 begin

11:13:27 wx step_20 end

11:13:33 wx step_20 begin

11:13:33 wx step_20 end

11:13:39 wx step_20 begin

11:13:39 wx step_20 end

11:13:45 wx step_20 begin

11:13:46 wx step_20 end

11:13:52 wx upd begin $$$

11:13:52 received UUEE 121100Z 25007MPS 9999 DRSN BKN018CB M01/M02 Q1003 NOSIG RMK 75420349 25420349

11:13:52 wx upd end $$$

11:13:52 wx step_20 begin

11:13:52 wx step_20 end

11:13:59 wx step_20 begin

11:13:59 wx step_20 end

11:14:05 wx step_20 begin

11:14:05 wx step_20 end

11:14:11 wx step_20 begin

11:14:11 wx step_20 end

11:14:17 closest station found UUEM (FS=UUEM)

11:14:17 received UUEM 280500Z 20009MPS 8000 BR OVC015 M03/M05 Q1031 NOSIG RMK QFE760

11:14:18 load aloft TH/T<TD <F/T</T </

11:14:18 wx generated for UUEM UUEM 280500Z 20009MPS 8000 BR OVC015 M03/M05 Q1031 NOSIG RMK QFE760

11:14:18 UUEM 1031mb

11:14:18 UUEM -3C -> 0C

11:14:19 KSC set to 77 based on wx

11:14:19 fs9 wx updated for UUEM

11:14:19 wx step_20 begin

11:14:19 wx step_20 end

11:14:26 wx step_20 begin

11:14:26 wx step_20 end

11:14:32 wx step_20 begin

11:14:32 wx step_20 end

11:14:38 wx step_20 begin

11:14:38 wx step_20 end

11:14:44 wx step_20 begin

11:14:45 wx step_20 end

11:14:51 wx upd begin $$$

11:14:51 received UUEM 280500Z 20009MPS 8000 BR OVC015 M03/M05 Q1031 NOSIG RMK QFE760

11:14:51 wx upd end $$$

11:14:51 wx step_20 begin

11:14:51 wx step_20 end

11:14:58 wx step_20 begin

11:14:58 wx step_20 end

11:15:04 wx step_20 begin

11:15:04 wx step_20 end

11:15:10 wx step_20 begin

11:15:10 wx step_20 end

11:15:16 wx step_20 begin

11:15:17 wx step_20 end

11:15:23 wx upd begin $$$

11:15:24 received UUEM 280500Z 20009MPS 8000 BR OVC015 M03/M05 Q1031 NOSIG RMK QFE760

11:15:24 wx upd end $$$

11:15:24 wx step_20 begin

11:15:24 wx step_20 end

11:15:30 wx step_20 begin

11:15:30 wx step_20 end

11:15:37 wx step_20 begin

11:15:37 wx step_20 end

11:15:43 wx step_20 begin

11:15:43 wx step_20 end

11:15:49 wx step_20 begin

11:15:49 wx step_20 end

11:15:55 wx upd begin $$$

11:15:56 received UUEM 280500Z 20009MPS 8000 BR OVC015 M03/M05 Q1031 NOSIG RMK QFE760

11:15:56 wx upd end $$$

11:15:56 wx step_20 begin

11:15:56 wx step_20 end

11:16:02 wx step_20 begin

11:16:02 wx step_20 end

11:16:08 wx step_20 begin

11:16:08 wx step_20 end

11:16:14 wx step_20 begin

11:16:15 wx step_20 end

11:16:21 wx step_20 begin

11:16:21 wx step_20 end

11:16:27 wx upd begin $$$

11:16:27 received UUEM 280500Z 20009MPS 8000 BR OVC015 M03/M05 Q1031 NOSIG RMK QFE760

11:16:27 wx upd end $$$

11:16:27 wx step_20 begin

11:16:27 wx step_20 end

11:16:34 wx step_20 begin

11:16:34 wx step_20 end

11:16:40 wx step_20 begin

11:16:40 wx step_20 end

11:16:46 wx step_20 begin

11:16:47 wx step_20 end

11:16:53 wx step_20 begin

11:16:53 wx step_20 end

11:16:59 wx upd begin $$$

11:17:00 received UUEM 280500Z 20009MPS 8000 BR OVC015 M03/M05 Q1031 NOSIG RMK QFE760

11:17:00 wx upd end $$$

11:17:00 wx step_20 begin

11:17:00 wx step_20 end

11:17:06 wx step_20 begin

11:17:07 wx step_20 end

11:17:13 wx step_20 begin

11:17:13 wx step_20 end

11:17:19 wx step_20 begin

11:17:19 wx step_20 end

11:17:25 wx step_20 begin

11:17:26 wx step_20 end

11:17:32 wx upd begin $$$

11:17:32 received UUEM 280500Z 20009MPS 8000 BR OVC015 M03/M05 Q1031 NOSIG RMK QFE760

11:17:32 wx upd end $$$

11:17:32 wx step_20 begin

11:17:32 wx step_20 end

11:17:38 wx step_20 begin

11:17:38 wx step_20 end

11:17:45 wx step_20 begin

11:17:45 wx step_20 end

11:17:51 wx step_20 begin

11:17:51 wx step_20 end

11:17:58 wx step_20 begin

11:17:58 wx step_20 end

11:18:04 wx upd begin $$$

11:18:04 received UUEM 280500Z 20009MPS 8000 BR OVC015 M03/M05 Q1031 NOSIG RMK QFE760

11:18:04 wx upd end $$$

11:18:04 wx step_20 begin

11:18:04 wx step_20 end

11:18:11 wx step_20 begin

11:18:11 wx step_20 end

11:18:17 wx step_20 begin

11:18:17 wx step_20 end

11:18:23 wx step_20 begin

11:18:23 wx step_20 end

11:18:30 wx step_20 begin

11:18:30 wx step_20 end

11:18:36 wx upd begin $$$

11:18:36 received UUEM 280500Z 20009MPS 8000 BR OVC015 M03/M05 Q1031 NOSIG RMK QFE760

11:18:36 wx upd end $$$

11:18:36 wx step_20 begin

11:18:36 wx step_20 end

11:18:43 wx step_20 begin

11:18:43 wx step_20 end

11:18:49 wx step_20 begin

11:18:49 wx step_20 end

11:18:55 wx step_20 begin

11:18:56 wx step_20 end

11:19:02 wx step_20 begin

11:19:02 wx step_20 end

11:19:08 wx upd begin $$$

11:19:08 received UUEM 280500Z 20009MPS 8000 BR OVC015 M03/M05 Q1031 NOSIG RMK QFE760

11:19:08 wx upd end $$$

11:19:08 wx step_20 begin

11:19:08 wx step_20 end

11:19:15 closest station found ULWW (FS=ULWW)

11:19:15 received ULWW 121100Z 19004G07MPS 9999 -SHSN BKN011CB OVC/// M02/M04 Q0997 TEMPO 2000 SHSN RMK QFE737 15410150

11:19:16 load aloft TH/T<TD <F/T</T </

11:19:16 wx generated for ULWW ULWW 121100Z 19004G07MPS 9999 -SHSN BKN011CB OVC/// M02/M04 Q0997 TEMPO 2000 SHSN RMK QFE737 15410150

11:19:16 ULWW 997mb

11:19:16 ULWW -2C -> 0C

11:19:17 KSC set to 50 based on wx

11:19:17 fs9 wx updated for ULWW

11:19:17 wx step_20 begin

11:19:18 wx step_20 end

11:19:24 wx step_20 begin

11:19:24 wx step_20 end

11:19:30 wx step_20 begin

11:19:30 wx step_20 end

11:19:37 wx step_20 begin

11:19:37 wx step_20 end

11:19:43 wx step_20 begin

11:19:43 wx step_20 end

11:19:49 wx upd begin $$$

11:19:49 received ULWW 121100Z 19004G07MPS 9999 -SHSN BKN011CB OVC/// M02/M04 Q0997 TEMPO 2000 SHSN RMK QFE737 15410150

11:19:49 wx upd end $$$

11:19:49 wx step_20 begin

11:19:50 wx step_20 end

11:19:56 wx step_20 begin

11:19:57 wx step_20 end

11:20:03 wx step_20 begin

11:20:03 wx step_20 end

11:20:10 wx step_20 begin

11:20:10 wx step_20 end

11:20:16 wx step_20 begin

11:20:17 wx step_20 end

11:20:23 wx upd begin $$$

11:20:23 received ULWW 121100Z 19004G07MPS 9999 -SHSN BKN011CB OVC/// M02/M04 Q0997 TEMPO 2000 SHSN RMK QFE737 15410150

11:20:23 wx upd end $$$

11:20:23 wx step_20 begin

11:20:23 wx step_20 end

11:20:30 wx step_20 begin

11:20:30 wx step_20 end

11:20:36 wx step_20 begin

11:20:36 wx step_20 end

11:20:43 wx step_20 begin

11:20:43 wx step_20 end

11:20:49 wx step_20 begin

11:20:49 wx step_20 end

11:20:55 wx upd begin $$$

11:20:55 received ULWW 121100Z 19004G07MPS 9999 -SHSN BKN011CB OVC/// M02/M04 Q0997 TEMPO 2000 SHSN RMK QFE737 15410150

11:20:55 wx upd end $$$

11:20:55 wx step_20 begin

11:20:56 wx step_20 end

11:21:02 wx step_20 begin

11:21:02 wx step_20 end

11:21:08 wx step_20 begin

11:21:09 wx step_20 end

11:21:15 wx step_20 begin

11:21:15 wx step_20 end

11:21:21 wx step_20 begin

11:21:21 wx step_20 end

11:21:27 wx refresh begin $$$

11:21:27 closest station found ULWW (FS=ULWW)

11:21:27 received ULWW 121100Z 19004G07MPS 9999 -SHSN BKN011CB OVC/// M02/M04 Q0997 TEMPO 2000 SHSN RMK QFE737 15410150

11:21:27 simulated wind ok

11:21:27 wx generated for ULWW ULWW 121100Z 19004G07MPS 9999 -SHSN BKN011CB OVC/// M02/M04 Q0997 TEMPO 2000 SHSN RMK QFE737 15410150

11:21:27 ULWW 997mb

11:21:27 ULWW -2C -> -85C

11:21:28 KSC set to 50 based on wx

11:21:28 fs9 wx updated for ULWW

11:21:28 wx refresh end $$$

11:21:30 wx step_20 begin

11:21:30 wx step_20 end

11:21:37 wx step_20 begin

11:21:37 wx step_20 end

11:21:43 wx step_20 begin

11:21:43 wx step_20 end

11:21:49 wx step_20 begin

11:21:49 wx step_20 end

11:21:55 wx step_20 begin

11:21:56 wx step_20 end

11:22:00 wx upd begin $$$

11:22:00 received ULWW 121100Z 19004G07MPS 9999 -SHSN BKN011CB OVC/// M02/M04 Q0997 TEMPO 2000 SHSN RMK QFE737 15410150

11:22:00 wx upd end $$$

11:22:02 wx step_20 begin

11:22:02 wx step_20 end

11:22:08 wx step_20 begin

11:22:08 wx step_20 end

11:22:14 wx step_20 begin

11:22:15 wx step_20 end

11:22:21 wx step_20 begin

11:22:21 wx step_20 end

11:22:27 wx step_20 begin

11:22:27 wx step_20 end

11:22:32 wx upd begin $$$

11:22:32 received ULWW 121100Z 19004G07MPS 9999 -SHSN BKN011CB OVC/// M02/M04 Q0997 TEMPO 2000 SHSN RMK QFE737 15410150

11:22:32 wx upd end $$$

11:22:34 wx step_20 begin

11:22:34 wx step_20 end

11:22:40 wx step_20 begin

11:22:40 wx step_20 end

11:22:46 wx step_20 begin

11:22:46 wx step_20 end

11:22:52 wx step_20 begin

11:22:52 wx step_20 end

11:22:58 wx step_20 begin

11:22:59 wx step_20 end

11:23:03 wx upd begin $$$

11:23:03 received ULWW 121100Z 19004G07MPS 9999 -SHSN BKN011CB OVC/// M02/M04 Q0997 TEMPO 2000 SHSN RMK QFE737 15410150

11:23:03 wx upd end $$$

11:23:05 wx step_20 begin

11:23:05 wx step_20 end

11:23:11 wx step_20 begin

11:23:12 wx step_20 end

11:23:18 wx step_20 begin

11:23:18 wx step_20 end

11:23:24 wx step_20 begin

11:23:24 wx step_20 end

11:23:30 wx step_20 begin

11:23:30 wx step_20 end

11:23:35 wx upd begin $$$

11:23:35 received ULWW 121100Z 19004G07MPS 9999 -SHSN BKN011CB OVC/// M02/M04 Q0997 TEMPO 2000 SHSN RMK QFE737 15410150

11:23:35 wx upd end $$$

11:23:37 wx step_20 begin

11:23:37 wx step_20 end

11:23:43 wx step_20 begin

11:23:43 wx step_20 end

11:23:49 wx step_20 begin

11:23:49 wx step_20 end

11:23:55 wx step_20 begin

11:23:56 wx step_20 end

11:24:02 wx step_20 begin

11:24:02 wx step_20 end

11:24:06 wx upd begin $$$

11:24:06 received ULWW 121100Z 19004G07MPS 9999 -SHSN BKN011CB OVC/// M02/M04 Q0997 TEMPO 2000 SHSN RMK QFE737 15410150

11:24:06 wx upd end $$$

11:24:08 wx step_20 begin

11:24:08 wx step_20 end

11:24:14 wx step_20 begin

11:24:15 wx step_20 end

11:24:21 wx step_20 begin

11:24:21 wx step_20 end

11:24:27 wx step_20 begin

11:24:27 wx step_20 end

11:24:33 wx step_20 begin

11:24:33 wx step_20 end

11:24:38 wx upd begin $$$

11:24:38 received ULWW 121100Z 19004G07MPS 9999 -SHSN BKN011CB OVC/// M02/M04 Q0997 TEMPO 2000 SHSN RMK QFE737 15410150

11:24:38 wx upd end $$$

11:24:40 wx step_20 begin

11:24:40 wx step_20 end

11:24:46 wx step_20 begin

11:24:46 wx step_20 end

11:24:52 wx step_20 begin

11:24:52 wx step_20 end

11:24:58 wx step_20 begin

11:24:59 wx step_20 end

11:25:05 wx step_20 begin

11:25:05 wx step_20 end

11:25:09 wx upd begin $$$

11:25:10 received ULWW 121100Z 19004G07MPS 9999 -SHSN BKN011CB OVC/// M02/M04 Q0997 TEMPO 2000 SHSN RMK QFE737 15410150

11:25:10 wx upd end $$$

11:25:11 wx step_20 begin

11:25:11 wx step_20 end

11:25:18 wx step_20 begin

11:25:18 wx step_20 end

11:25:24 wx step_20 begin

11:25:24 wx step_20 end

11:25:30 wx step_20 begin

11:25:30 wx step_20 end

11:25:36 wx step_20 begin

11:25:36 wx step_20 end

11:25:41 wx upd begin $$$

11:25:41 received ULWW 121100Z 19004G07MPS 9999 -SHSN BKN011CB OVC/// M02/M04 Q0997 TEMPO 2000 SHSN RMK QFE737 15410150

11:25:41 wx upd end $$$

11:25:43 wx step_20 begin

11:25:43 wx step_20 end

11:25:49 wx step_20 begin

11:25:49 wx step_20 end

11:25:55 wx step_20 begin

11:25:56 wx step_20 end

11:26:02 wx step_20 begin

11:26:02 wx step_20 end

11:26:08 wx step_20 begin

11:26:08 wx step_20 end

11:26:12 wx upd begin $$$

11:26:13 received ULWW 121100Z 19004G07MPS 9999 -SHSN BKN011CB OVC/// M02/M04 Q0997 TEMPO 2000 SHSN RMK QFE737 15410150

11:26:13 wx upd end $$$

11:26:14 wx step_20 begin

11:26:15 wx step_20 end

11:26:21 wx step_20 begin

11:26:21 wx step_20 end

11:26:27 wx step_20 begin

11:26:27 wx step_20 end

11:26:33 wx step_20 begin

11:26:33 wx step_20 end

11:26:39 wx step_20 begin

11:26:40 wx step_20 end

11:26:44 wx upd begin $$$

11:26:44 received ULWW 121100Z 19004G07MPS 9999 -SHSN BKN011CB OVC/// M02/M04 Q0997 TEMPO 2000 SHSN RMK QFE737 15410150

11:26:44 wx upd end $$$

11:26:46 wx step_20 begin

11:26:46 wx step_20 end

11:26:53 wx step_20 begin

11:26:53 wx step_20 end

11:26:59 wx step_20 begin

11:26:59 wx step_20 end

11:27:05 wx step_20 begin

11:27:05 wx step_20 end

11:27:11 wx step_20 begin

11:27:12 wx step_20 end

11:27:16 wx upd begin $$$

11:27:16 received ULWW 121100Z 19004G07MPS 9999 -SHSN BKN011CB OVC/// M02/M04 Q0997 TEMPO 2000 SHSN RMK QFE737 15410150

11:27:16 wx upd end $$$

11:27:18 wx step_20 begin

11:27:18 wx step_20 end

11:27:24 wx step_20 begin

11:27:25 wx step_20 end

11:27:31 wx step_20 begin

11:27:31 wx step_20 end

11:27:37 wx step_20 begin

11:27:37 wx step_20 end

11:27:43 wx step_20 begin

11:27:43 wx step_20 end

11:27:48 wx upd begin $$$

11:27:48 received ULWW 121100Z 19004G07MPS 9999 -SHSN BKN011CB OVC/// M02/M04 Q0997 TEMPO 2000 SHSN RMK QFE737 15410150

11:27:48 wx upd end $$$

11:27:50 wx step_20 begin

11:27:50 wx step_20 end

11:27:56 wx step_20 begin

11:27:56 wx step_20 end

11:28:02 wx step_20 begin

11:28:02 wx step_20 end

11:28:09 wx step_20 begin

11:28:09 wx step_20 end

11:28:15 wx step_20 begin

11:28:15 wx step_20 end

11:28:19 wx upd begin $$$

11:28:19 received ULWW 121100Z 19004G07MPS 9999 -SHSN BKN011CB OVC/// M02/M04 Q0997 TEMPO 2000 SHSN RMK QFE737 15410150

11:28:19 wx upd end $$$

11:28:21 wx step_20 begin

11:28:21 wx step_20 end

11:28:28 wx step_20 begin

11:28:28 wx step_20 end

11:28:34 wx step_20 begin

11:28:34 wx step_20 end

11:28:40 wx step_20 begin

11:28:40 wx step_20 end

11:28:46 wx step_20 begin

11:28:46 wx step_20 end

11:28:51 wx upd begin $$$

11:28:51 received ULWW 121100Z 19004G07MPS 9999 -SHSN BKN011CB OVC/// M02/M04 Q0997 TEMPO 2000 SHSN RMK QFE737 15410150

11:28:51 wx upd end $$$

11:28:53 wx step_20 begin

11:28:53 wx step_20 end

11:28:59 wx step_20 begin

11:28:59 wx step_20 end

11:29:05 wx step_20 begin

11:29:06 wx step_20 end

11:29:12 wx step_20 begin

11:29:12 wx step_20 end

11:29:18 wx step_20 begin

11:29:18 wx step_20 end

11:29:22 wx upd begin $$$

11:29:23 received ULWW 121100Z 19004G07MPS 9999 -SHSN BKN011CB OVC/// M02/M04 Q0997 TEMPO 2000 SHSN RMK QFE737 15410150

11:29:23 wx upd end $$$

11:29:25 wx step_20 begin

11:29:25 wx step_20 end

11:29:31 wx step_20 begin

11:29:31 wx step_20 end

11:29:37 wx step_20 begin

11:29:37 wx step_20 end

11:29:44 wx step_20 begin

11:29:44 wx step_20 end

11:29:50 wx step_20 begin

11:29:50 wx step_20 end

11:29:54 wx upd begin $$$

11:29:54 received ULWW 121100Z 19004G07MPS 9999 -SHSN BKN011CB OVC/// M02/M04 Q0997 TEMPO 2000 SHSN RMK QFE737 15410150

11:29:54 wx upd end $$$

11:29:56 wx step_20 begin

11:29:57 wx step_20 end

11:30:03 wx step_20 begin

11:30:03 wx step_20 end

11:30:09 wx step_20 begin

11:30:09 wx step_20 end

11:30:15 wx step_20 begin

11:30:15 wx step_20 end

11:30:21 wx step_20 begin

11:30:22 wx step_20 end

11:30:26 wx upd begin $$$

11:30:26 received ULWW 121100Z 19004G07MPS 9999 -SHSN BKN011CB OVC/// M02/M04 Q0997 TEMPO 2000 SHSN RMK QFE737 15410150

11:30:26 wx upd end $$$

11:30:28 wx step_20 begin

11:30:28 wx step_20 end

11:30:34 wx step_20 begin

11:30:34 wx step_20 end

11:30:40 wx step_20 begin

11:30:41 wx step_20 end

11:30:47 wx step_20 begin

11:30:47 wx step_20 end

11:30:53 wx step_20 begin

11:30:53 wx step_20 end

11:30:57 wx upd begin $$$

11:30:58 received ULWW 121100Z 19004G07MPS 9999 -SHSN BKN011CB OVC/// M02/M04 Q0997 TEMPO 2000 SHSN RMK QFE737 15410150

11:30:58 wx upd end $$$

11:30:59 wx step_20 begin

11:31:00 wx step_20 end

11:31:06 wx step_20 begin

11:31:06 wx step_20 end

11:31:12 wx step_20 begin

11:31:12 wx step_20 end

11:31:18 wx step_20 begin

11:31:19 wx step_20 end

11:31:25 wx step_20 begin

11:31:25 wx step_20 end

11:31:29 wx upd begin $$$

11:31:29 received ULWW 121100Z 19004G07MPS 9999 -SHSN BKN011CB OVC/// M02/M04 Q0997 TEMPO 2000 SHSN RMK QFE737 15410150

11:31:29 wx upd end $$$

11:31:31 wx step_20 begin

11:31:31 wx step_20 end

11:31:38 wx step_20 begin

11:31:38 wx step_20 end

11:31:44 wx step_20 begin

11:31:44 wx step_20 end

11:31:50 wx step_20 begin

11:31:50 wx step_20 end

11:31:56 wx step_20 begin

11:31:57 wx step_20 end

11:32:01 wx upd begin $$$

11:32:01 received ULWW 121100Z 19004G07MPS 9999 -SHSN BKN011CB OVC/// M02/M04 Q0997 TEMPO 2000 SHSN RMK QFE737 15410150

11:32:01 wx upd end $$$

11:32:03 wx step_20 begin

11:32:03 wx step_20 end

11:32:09 wx step_20 begin

11:32:09 wx step_20 end

11:32:15 wx step_20 begin

11:32:16 wx step_20 end

11:32:22 wx step_20 begin

11:32:22 wx step_20 end

11:32:28 wx step_20 begin

11:32:28 wx step_20 end

11:32:32 wx upd begin $$$

11:32:33 received ULWW 121100Z 19004G07MPS 9999 -SHSN BKN011CB OVC/// M02/M04 Q0997 TEMPO 2000 SHSN RMK QFE737 15410150

11:32:33 wx upd end $$$

11:32:34 wx step_20 begin

11:32:35 wx step_20 end

11:32:41 wx step_20 begin

11:32:41 wx step_20 end

11:32:47 wx step_20 begin

11:32:47 wx step_20 end

11:32:53 wx step_20 begin

11:32:53 wx step_20 end

11:32:59 wx step_20 begin

11:33:00 wx step_20 end

11:33:04 wx upd begin $$$

11:33:04 received ULWW 121100Z 19004G07MPS 9999 -SHSN BKN011CB OVC/// M02/M04 Q0997 TEMPO 2000 SHSN RMK QFE737 15410150

11:33:04 wx upd end $$$

11:33:06 wx step_20 begin

11:33:06 wx step_20 end

11:33:12 wx step_20 begin

11:33:12 wx step_20 end

11:33:19 wx step_20 begin

11:33:19 wx step_20 end

11:33:25 wx step_20 begin

11:33:25 wx step_20 end

11:33:31 wx step_20 begin

11:33:31 wx step_20 end

11:33:36 wx upd begin $$$

11:33:36 received ULWW 121100Z 19004G07MPS 9999 -SHSN BKN011CB OVC/// M02/M04 Q0997 TEMPO 2000 SHSN RMK QFE737 15410150

11:33:36 wx upd end $$$

11:33:38 wx step_20 begin

11:33:38 wx step_20 end

11:33:44 wx step_20 begin

11:33:44 wx step_20 end

11:33:50 wx step_20 begin

11:33:50 wx step_20 end

11:33:56 wx step_20 begin

11:33:56 wx step_20 end

11:34:03 wx step_20 begin

11:34:03 wx step_20 end

11:34:07 wx upd begin $$$

11:34:07 received ULWW 121100Z 19004G07MPS 9999 -SHSN BKN011CB OVC/// M02/M04 Q0997 TEMPO 2000 SHSN RMK QFE737 15410150

11:34:07 wx upd end $$$

11:34:10 wx step_20 begin

11:34:10 wx step_20 end

11:34:16 wx step_20 begin

11:34:16 wx step_20 end

11:34:22 wx step_20 begin

11:34:22 wx step_20 end

11:34:29 wx step_20 begin

11:34:29 wx step_20 end

11:34:35 wx step_20 begin

11:34:35 wx step_20 end

11:34:39 wx upd begin $$$

11:34:40 received ULWW 121100Z 19004G07MPS 9999 -SHSN BKN011CB OVC/// M02/M04 Q0997 TEMPO 2000 SHSN RMK QFE737 15410150

11:34:40 wx upd end $$$

11:34:42 wx step_20 begin

11:34:42 wx step_20 end

11:34:48 wx step_20 begin

11:34:48 wx step_20 end

11:34:54 wx step_20 begin

11:34:54 wx step_20 end

11:35:00 wx step_20 begin

11:35:01 wx step_20 end

11:35:07 wx step_20 begin

11:35:07 wx step_20 end

11:35:11 wx upd begin $$$

11:35:11 received ULWW 121100Z 19004G07MPS 9999 -SHSN BKN011CB OVC/// M02/M04 Q0997 TEMPO 2000 SHSN RMK QFE737 15410150

11:35:11 wx upd end $$$

11:35:13 wx step_20 begin

11:35:13 wx step_20 end

11:35:19 wx step_20 begin

11:35:20 wx step_20 end

11:35:26 wx step_20 begin

11:35:26 wx step_20 end

11:35:32 wx step_20 begin

11:35:32 wx step_20 end

11:35:38 wx step_20 begin

11:35:38 wx step_20 end

11:35:43 wx upd begin $$$

11:35:43 received ULWW 121100Z 19004G07MPS 9999 -SHSN BKN011CB OVC/// M02/M04 Q0997 TEMPO 2000 SHSN RMK QFE737 15410150

11:35:43 wx upd end $$$

11:35:45 wx step_20 begin

11:35:45 wx step_20 end

11:35:51 wx step_20 begin

11:35:52 wx step_20 end

11:35:58 wx step_20 begin

11:35:58 wx step_20 end

11:36:04 wx step_20 begin

11:36:04 wx step_20 end

11:36:10 wx step_20 begin

11:36:10 wx step_20 end

11:36:15 wx upd begin $$$

11:36:15 received ULWW 121100Z 19004G07MPS 9999 -SHSN BKN011CB OVC/// M02/M04 Q0997 TEMPO 2000 SHSN RMK QFE737 15410150

11:36:15 wx upd end $$$

11:36:17 wx step_20 begin

11:36:17 wx step_20 end

11:36:23 wx step_20 begin

11:36:23 wx step_20 end

11:36:29 wx step_20 begin

11:36:29 wx step_20 end

11:36:35 wx step_20 begin

11:36:36 wx step_20 end

11:36:42 wx step_20 begin

11:36:42 wx step_20 end

11:36:46 wx upd begin $$$

11:36:46 received ULWW 121100Z 19004G07MPS 9999 -SHSN BKN011CB OVC/// M02/M04 Q0997 TEMPO 2000 SHSN RMK QFE737 15410150

11:36:46 wx upd end $$$

11:36:48 wx step_20 begin

11:36:48 wx step_20 end

11:36:54 wx step_20 begin

11:36:55 wx step_20 end

11:37:01 wx step_20 begin

11:37:01 wx step_20 end

11:37:07 wx step_20 begin

11:37:07 wx step_20 end

11:37:13 wx step_20 begin

11:37:14 wx step_20 end

11:37:18 wx upd begin $$$

11:37:18 received ULWW 121100Z 19004G07MPS 9999 -SHSN BKN011CB OVC/// M02/M04 Q0997 TEMPO 2000 SHSN RMK QFE737 15410150

11:37:18 wx upd end $$$

11:37:20 wx step_20 begin

11:37:20 wx step_20 end

11:37:26 wx step_20 begin

11:37:26 wx step_20 end

11:37:33 wx step_20 begin

11:37:33 wx step_20 end

11:37:39 wx step_20 begin

11:37:39 wx step_20 end

11:37:45 wx step_20 begin

11:37:45 wx step_20 end

11:37:50 wx upd begin $$$

11:37:50 received ULWW 121100Z 19004G07MPS 9999 -SHSN BKN011CB OVC/// M02/M04 Q0997 TEMPO 2000 SHSN RMK QFE737 15410150

11:37:50 wx upd end $$$

11:37:51 wx step_20 begin

11:37:51 wx step_20 end

11:37:58 wx step_20 begin

11:37:58 wx step_20 end

11:38:04 wx step_20 begin

11:38:04 wx step_20 end

11:38:10 wx step_20 begin

11:38:10 wx step_20 end

11:38:16 wx step_20 begin

11:38:17 wx step_20 end

11:38:21 wx upd begin $$$

11:38:21 received ULWW 121100Z 19004G07MPS 9999 -SHSN BKN011CB OVC/// M02/M04 Q0997 TEMPO 2000 SHSN RMK QFE737 15410150

11:38:21 wx upd end $$$

11:38:23 wx step_20 begin

11:38:23 wx step_20 end

11:38:29 wx step_20 begin

11:38:29 wx step_20 end

11:38:35 wx step_20 begin

11:38:36 wx step_20 end

11:38:42 wx step_20 begin

11:38:42 wx step_20 end

11:38:48 wx step_20 begin

11:38:48 wx step_20 end

11:38:52 wx upd begin $$$

11:38:53 received ULWW 121100Z 19004G07MPS 9999 -SHSN BKN011CB OVC/// M02/M04 Q0997 TEMPO 2000 SHSN RMK QFE737 15410150

11:38:53 wx upd end $$$

11:38:54 wx step_20 begin

11:38:55 wx step_20 end

11:39:01 wx step_20 begin

11:39:01 wx step_20 end

11:39:07 wx step_20 begin

11:39:07 wx step_20 end

11:39:13 wx step_20 begin

11:39:13 wx step_20 end

11:39:19 wx step_20 begin

11:39:20 wx step_20 end

11:39:24 wx upd begin $$$

11:39:24 received ULWW 121100Z 19004G07MPS 9999 -SHSN BKN011CB OVC/// M02/M04 Q0997 TEMPO 2000 SHSN RMK QFE737 15410150

11:39:24 wx upd end $$$

11:39:26 wx step_20 begin

11:39:26 wx step_20 end

11:39:32 wx step_20 begin

11:39:32 wx step_20 end

11:39:38 wx step_20 begin

11:39:39 wx step_20 end

11:39:45 wx step_20 begin

11:39:45 wx step_20 end

11:39:51 wx step_20 begin

11:39:51 wx step_20 end

11:39:56 wx upd begin $$$

11:39:56 received ULWW 121100Z 19004G07MPS 9999 -SHSN BKN011CB OVC/// M02/M04 Q0997 TEMPO 2000 SHSN RMK QFE737 15410150

11:39:56 wx upd end $$$

11:39:58 wx step_20 begin

11:39:58 wx step_20 end

11:40:04 wx step_20 begin

11:40:04 wx step_20 end

11:40:10 wx step_20 begin

11:40:10 wx step_20 end

11:40:16 wx step_20 begin

11:40:16 wx step_20 end

11:40:23 wx step_20 begin

11:40:23 wx step_20 end

11:40:27 wx upd begin $$$

11:40:28 received ULWW 121100Z 19004G07MPS 9999 -SHSN BKN011CB OVC/// M02/M04 Q0997 TEMPO 2000 SHSN RMK QFE737 15410150

11:40:28 wx upd end $$$

11:40:30 wx step_20 begin

11:40:30 wx step_20 end

11:40:36 wx step_20 begin

11:40:36 wx step_20 end

11:40:42 wx step_20 begin

11:40:42 wx step_20 end

11:40:48 wx step_20 begin

11:40:48 wx step_20 end

11:40:54 wx step_20 begin

11:40:55 wx step_20 end

11:40:59 wx upd begin $$$

11:40:59 received ULWW 121100Z 19004G07MPS 9999 -SHSN BKN011CB OVC/// M02/M04 Q0997 TEMPO 2000 SHSN RMK QFE737 15410150

11:40:59 wx upd end $$$

11:41:01 wx step_20 begin

11:41:01 closest station found ULWT (FS=ULWT)

11:41:02 received NOT FOUND

11:41:02 No wx data for ULWT

11:41:02 wx step_20 end

11:41:08 closest station found ULWW (FS=ULWW)

11:41:08 received ULWW 121100Z 19004G07MPS 9999 -SHSN BKN011CB OVC/// M02/M04 Q0997 TEMPO 2000 SHSN RMK QFE737 15410150

11:41:08 simulated wind ok

11:41:08 wx generated for ULWW ULWW 121100Z 19004G07MPS 9999 -SHSN BKN011CB OVC/// M02/M04 Q0997 TEMPO 2000 SHSN RMK QFE737 15410150

11:41:08 ULWW 997mb

11:41:08 ULWW -2C -> -85C

11:41:10 KSC set to 50 based on wx

11:41:10 fs9 wx updated for ULWW

11:41:10 wx step_20 begin

11:41:10 wx step_20 end

11:41:16 wx step_20 begin

11:41:16 wx step_20 end

11:41:22 wx step_20 begin

11:41:23 wx step_20 end

11:41:29 wx step_20 begin

11:41:29 wx step_20 end

11:41:35 wx step_20 begin

11:41:35 wx step_20 end

11:41:41 wx upd begin $$$

11:41:41 received ULWW 121100Z 19004G07MPS 9999 -SHSN BKN011CB OVC/// M02/M04 Q0997 TEMPO 2000 SHSN RMK QFE737 15410150

11:41:41 wx upd end $$$

11:41:41 wx step_20 begin

11:41:42 wx step_20 end

11:41:48 wx step_20 begin

11:41:48 wx step_20 end

11:41:55 wx step_20 begin

11:41:55 wx step_20 end

11:42:01 wx step_20 begin

11:42:01 wx step_20 end

11:42:07 wx step_20 begin

11:42:08 wx step_20 end

11:42:14 wx upd begin $$$

11:42:14 received ULWW 121100Z 19004G07MPS 9999 -SHSN BKN011CB OVC/// M02/M04 Q0997 TEMPO 2000 SHSN RMK QFE737 15410150

11:42:14 wx upd end $$$

11:42:14 wx step_20 begin

11:42:14 wx step_20 end

11:42:21 wx step_20 begin

11:42:21 wx step_20 end

11:42:27 wx step_20 begin

11:42:27 wx step_20 end

11:42:33 wx step_20 begin

11:42:33 wx step_20 end

11:42:40 wx step_20 begin

11:42:40 wx step_20 end

11:42:46 wx upd begin $$$

11:42:46 received ULWW 121100Z 19004G07MPS 9999 -SHSN BKN011CB OVC/// M02/M04 Q0997 TEMPO 2000 SHSN RMK QFE737 15410150

11:42:46 wx upd end $$$

11:42:46 wx step_20 begin

11:42:47 wx step_20 end

11:42:53 wx step_20 begin

11:42:53 wx step_20 end

11:42:59 wx step_20 begin

11:42:59 wx step_20 end

11:43:05 wx step_20 begin

11:43:05 wx step_20 end

11:43:11 wx step_20 begin

11:43:12 wx step_20 end

11:43:18 wx upd begin $$$

11:43:18 received ULWW 121100Z 19004G07MPS 9999 -SHSN BKN011CB OVC/// M02/M04 Q0997 TEMPO 2000 SHSN RMK QFE737 15410150

11:43:18 wx upd end $$$

11:43:18 wx step_20 begin

11:43:18 wx step_20 end

11:43:24 wx step_20 begin

11:43:25 wx step_20 end

11:43:31 wx step_20 begin

11:43:31 wx step_20 end

11:43:37 wx step_20 begin

11:43:37 wx step_20 end

11:43:43 wx step_20 begin

11:43:44 wx step_20 end

11:43:50 wx upd begin $$$

11:43:50 received ULWW 121100Z 19004G07MPS 9999 -SHSN BKN011CB OVC/// M02/M04 Q0997 TEMPO 2000 SHSN RMK QFE737 15410150

11:43:50 wx upd end $$$

11:43:50 wx step_20 begin

11:43:50 wx step_20 end

11:43:56 wx step_20 begin

11:43:57 wx step_20 end

11:44:03 wx step_20 begin

11:44:03 wx step_20 end

11:44:09 wx step_20 begin

11:44:09 wx step_20 end

11:44:16 wx step_20 begin

11:44:16 wx step_20 end

11:44:22 wx upd begin $$$

11:44:22 received ULWW 121100Z 19004G07MPS 9999 -SHSN BKN011CB OVC/// M02/M04 Q0997 TEMPO 2000 SHSN RMK QFE737 15410150

11:44:22 wx upd end $$$

11:44:22 wx step_20 begin

11:44:22 wx step_20 end

11:44:28 wx step_20 begin

11:44:29 wx step_20 end

11:44:35 wx step_20 begin

11:44:35 wx step_20 end

11:44:41 wx step_20 begin

11:44:41 wx step_20 end

11:44:48 wx step_20 begin

11:44:48 wx step_20 end

11:44:54 wx upd begin $$$

11:44:54 received ULWW 121100Z 19004G07MPS 9999 -SHSN BKN011CB OVC/// M02/M04 Q0997 TEMPO 2000 SHSN RMK QFE737 15410150

11:44:54 wx upd end $$$

11:44:54 wx step_20 begin

11:44:54 wx step_20 end

11:45:01 wx step_20 begin

11:45:01 wx step_20 end

11:45:07 wx step_20 begin

11:45:08 wx step_20 end

11:45:14 wx step_20 begin

11:45:14 wx step_20 end

11:45:20 wx step_20 begin

11:45:20 wx step_20 end

11:45:26 wx upd begin $$$

11:45:26 received ULWW 121100Z 19004G07MPS 9999 -SHSN BKN011CB OVC/// M02/M04 Q0997 TEMPO 2000 SHSN RMK QFE737 15410150

11:45:26 wx upd end $$$

11:45:26 wx step_20 begin

11:45:26 wx step_20 end

11:45:33 wx step_20 begin

11:45:33 wx step_20 end

11:45:39 wx step_20 begin

11:45:39 wx step_20 end

11:45:45 wx step_20 begin

11:45:45 wx step_20 end

11:45:52 wx step_20 begin

11:45:52 wx step_20 end

11:45:58 wx upd begin $$$

11:45:58 received ULWW 121100Z 19004G07MPS 9999 -SHSN BKN011CB OVC/// M02/M04 Q0997 TEMPO 2000 SHSN RMK QFE737 15410150

11:45:58 wx upd end $$$

11:45:58 wx step_20 begin

11:45:58 wx step_20 end

11:46:04 wx step_20 begin

11:46:04 wx step_20 end

11:46:11 wx step_20 begin

11:46:11 wx step_20 end

11:46:17 wx step_20 begin

11:46:17 wx step_20 end

11:46:23 wx step_20 begin

11:46:23 wx step_20 end

11:46:29 wx upd begin $$$

11:46:29 received ULWW 121100Z 19004G07MPS 9999 -SHSN BKN011CB OVC/// M02/M04 Q0997 TEMPO 2000 SHSN RMK QFE737 15410150

11:46:30 wx upd end $$$

11:46:30 wx step_20 begin

11:46:30 wx step_20 end

11:46:36 wx step_20 begin

11:46:37 wx step_20 end

11:46:43 wx step_20 begin

11:46:43 wx step_20 end

11:46:49 wx step_20 begin

11:46:49 wx step_20 end

11:46:56 wx step_20 begin

11:46:56 wx step_20 end

11:47:02 wx upd begin $$$

11:47:02 received ULWW 121100Z 19004G07MPS 9999 -SHSN BKN011CB OVC/// M02/M04 Q0997 TEMPO 2000 SHSN RMK QFE737 15410150

11:47:02 wx upd end $$$

11:47:02 wx step_20 begin

11:47:03 wx step_20 end

11:47:09 wx step_20 begin

11:47:09 wx step_20 end

11:47:15 wx step_20 begin

11:47:16 wx step_20 end

11:47:22 wx step_20 begin

11:47:22 wx step_20 end

11:47:28 wx step_20 begin

11:47:28 wx step_20 end

11:47:34 wx upd begin $$$

11:47:34 received ULWW 121100Z 19004G07MPS 9999 -SHSN BKN011CB OVC/// M02/M04 Q0997 TEMPO 2000 SHSN RMK QFE737 15410150

11:47:34 wx upd end $$$

11:47:34 wx step_20 begin

11:47:34 wx step_20 end

11:47:41 wx step_20 begin

11:47:41 wx step_20 end

11:47:47 wx step_20 begin

11:47:47 wx step_20 end

11:47:53 wx step_20 begin

11:47:53 wx step_20 end

11:47:59 wx step_20 begin

11:48:00 wx step_20 end

11:48:06 wx upd begin $$$

11:48:06 received ULWW 121100Z 19004G07MPS 9999 -SHSN BKN011CB OVC/// M02/M04 Q0997 TEMPO 2000 SHSN RMK QFE737 15410150

11:48:06 wx upd end $$$

11:48:06 wx step_20 begin

11:48:06 wx step_20 end

11:48:13 wx step_20 begin

11:48:13 wx step_20 end

11:48:19 wx step_20 begin

11:48:20 wx step_20 end

11:48:26 wx step_20 begin

11:48:26 wx step_20 end

11:48:32 wx step_20 begin

11:48:32 wx step_20 end

11:48:38 wx upd begin $$$

11:48:38 received ULWW 121100Z 19004G07MPS 9999 -SHSN BKN011CB OVC/// M02/M04 Q0997 TEMPO 2000 SHSN RMK QFE737 15410150

11:48:38 wx upd end $$$

11:48:38 wx step_20 begin

11:48:38 wx step_20 end

11:48:45 wx step_20 begin

11:48:45 wx step_20 end

11:48:52 wx step_20 begin

11:48:52 wx step_20 end

11:48:58 wx step_20 begin

11:48:58 wx step_20 end

11:49:04 wx step_20 begin

11:49:05 wx step_20 end

11:49:11 wx upd begin $$$

11:49:11 received ULWW 121100Z 19004G07MPS 9999 -SHSN BKN011CB OVC/// M02/M04 Q0997 TEMPO 2000 SHSN RMK QFE737 15410150

11:49:11 wx upd end $$$

11:49:11 wx step_20 begin

11:49:11 wx step_20 end

11:49:17 wx step_20 begin

11:49:18 wx step_20 end

11:49:24 wx step_20 begin

11:49:24 wx step_20 end

11:49:30 wx step_20 begin

11:49:30 wx step_20 end

11:49:36 wx step_20 begin

11:49:36 wx step_20 end

11:49:42 wx upd begin $$$

11:49:43 received ULWW 121100Z 19004G07MPS 9999 -SHSN BKN011CB OVC/// M02/M04 Q0997 TEMPO 2000 SHSN RMK QFE737 15410150

11:49:43 wx upd end $$$

11:49:43 wx step_20 begin

11:49:43 wx step_20 end

11:49:49 wx step_20 begin

11:49:49 wx step_20 end

11:49:55 wx step_20 begin

11:49:56 wx step_20 end

11:49:58 adf tuneup ))))))

11:50:04 station 2 on

11:50:06 adf tuneup ))))))

11:50:10 station 2 on

11:50:12 wx step_20 begin

11:50:12 wx step_20 end

11:50:18 wx step_20 begin

11:50:18 wx step_20 end

11:50:24 wx upd begin $$$

11:50:24 received ULWW 121100Z 19004G07MPS 9999 -SHSN BKN011CB OVC/// M02/M04 Q0997 TEMPO 2000 SHSN RMK QFE737 15410150

11:50:24 wx upd end $$$

11:50:24 wx step_20 begin

11:50:24 wx step_20 end

11:50:31 wx step_20 begin

11:50:31 wx step_20 end

11:50:37 wx step_20 begin

11:50:37 wx step_20 end

11:50:43 wx step_20 begin

11:50:43 wx step_20 end

11:50:50 wx step_20 begin

11:50:50 wx step_20 end

11:50:56 wx upd begin $$$

11:50:56 received ULWW 121100Z 19004G07MPS 9999 -SHSN BKN011CB OVC/// M02/M04 Q0997 TEMPO 2000 SHSN RMK QFE737 15410150

11:50:56 wx upd end $$$

11:50:56 wx step_20 begin

11:50:57 wx step_20 end

11:51:03 wx step_20 begin

11:51:03 wx step_20 end

11:51:09 closest station found ULAK (FS=ULAK)

11:51:10 received ULAK 061500Z 15004MPS 6000 HZ FEW200 BKN100 29/00 Q1015 XNOSIL

11:51:10 simulated wind ok

11:51:10 wx generated for ULAK ULAK 061500Z 15004MPS 6000 HZ FEW200 BKN100 29/00 Q1015 XNOSIL

11:51:10 ULAK 1015mb

11:51:10 ULAK 29C -> -85C

11:51:11 KSC set to 65 based on wx

11:51:11 fs9 wx updated for ULAK

11:51:11 wx step_20 begin

11:51:12 wx step_20 end

11:51:18 wx step_20 begin

11:51:18 wx step_20 end

11:51:21 adf tuneup ))))))

11:51:24 station 2 on

11:51:27 wx step_20 begin

11:51:27 wx step_20 end

11:51:34 wx step_20 begin

11:51:34 wx step_20 end

11:51:40 wx step_20 begin

11:51:41 wx step_20 end

11:51:42 adf tuneup ))))))

11:51:43 adf tuneup ))))))

11:51:45 station 2 on

11:51:45 adf tuneup ))))))

11:51:48 station 2 on

11:51:52 wx upd begin $$$

11:51:52 received ULAK 061500Z 15004MPS 6000 HZ FEW200 BKN100 29/00 Q1015 XNOSIL

11:51:52 wx upd end $$$

11:51:52 wx step_20 begin

11:51:52 wx step_20 end

11:51:58 wx step_20 begin

11:51:59 wx step_20 end

11:52:05 wx step_20 begin

11:52:05 wx step_20 end

11:52:11 wx step_20 begin

11:52:11 wx step_20 end

11:52:18 wx step_20 begin

11:52:18 wx step_20 end

11:52:24 wx upd begin $$$

11:52:24 received ULAK 061500Z 15004MPS 6000 HZ FEW200 BKN100 29/00 Q1015 XNOSIL

11:52:24 wx upd end $$$

11:52:24 wx step_20 begin

11:52:25 wx step_20 end

11:52:31 wx step_20 begin

11:52:31 wx step_20 end

11:52:37 wx step_20 begin

11:52:38 wx step_20 end

11:52:44 wx step_20 begin

11:52:44 wx step_20 end

11:52:50 wx step_20 begin

11:52:51 wx step_20 end

11:52:57 wx upd begin $$$

11:52:57 received ULAK 061500Z 15004MPS 6000 HZ FEW200 BKN100 29/00 Q1015 XNOSIL

11:52:57 wx upd end $$$

11:52:57 wx step_20 begin

11:52:57 wx step_20 end

11:53:03 wx step_20 begin

11:53:04 wx step_20 end

11:53:10 wx step_20 begin

11:53:10 wx step_20 end

11:53:16 wx step_20 begin

11:53:16 wx step_20 end

11:53:22 wx step_20 begin

11:53:22 wx step_20 end

11:53:28 wx upd begin $$$

11:53:29 received ULAK 061500Z 15004MPS 6000 HZ FEW200 BKN100 29/00 Q1015 XNOSIL

11:53:29 wx upd end $$$

11:53:29 wx step_20 begin

11:53:29 wx step_20 end

11:53:35 wx step_20 begin

11:53:36 wx step_20 end

11:53:42 wx step_20 begin

11:53:42 wx step_20 end

11:53:49 wx step_20 begin

11:53:49 wx step_20 end

11:53:55 wx step_20 begin

11:53:55 wx step_20 end

11:54:01 wx upd begin $$$

11:54:01 received ULAK 061500Z 15004MPS 6000 HZ FEW200 BKN100 29/00 Q1015 XNOSIL

11:54:01 wx upd end $$$

11:54:01 wx step_20 begin

11:54:02 wx step_20 end

11:54:08 wx step_20 begin

11:54:08 wx step_20 end

11:54:14 wx step_20 begin

11:54:15 wx step_20 end

11:54:21 wx step_20 begin

11:54:21 wx step_20 end

11:54:27 wx step_20 begin

11:54:27 wx step_20 end

11:54:34 wx upd begin $$$

11:54:34 received ULAK 061500Z 15004MPS 6000 HZ FEW200 BKN100 29/00 Q1015 XNOSIL

11:54:34 wx upd end $$$

11:54:34 wx step_20 begin

11:54:34 wx step_20 end

11:54:41 wx step_20 begin

11:54:41 wx step_20 end

11:54:47 wx step_20 begin

11:54:47 wx step_20 end

11:54:53 wx step_20 begin

11:54:53 wx step_20 end

11:54:59 wx step_20 begin

11:55:00 wx step_20 end

11:55:06 wx upd begin $$$

11:55:06 received ULAK 061500Z 15004MPS 6000 HZ FEW200 BKN100 29/00 Q1015 XNOSIL

11:55:06 wx upd end $$$

11:55:06 wx step_20 begin

11:55:06 wx step_20 end

11:55:12 wx step_20 begin

11:55:12 wx step_20 end

11:55:18 wx step_20 begin

11:55:19 wx step_20 end

11:55:25 wx step_20 begin

11:55:25 wx step_20 end

11:55:31 wx step_20 begin

11:55:31 wx step_20 end

11:55:37 wx upd begin $$$

11:55:37 received ULAK 061500Z 15004MPS 6000 HZ FEW200 BKN100 29/00 Q1015 XNOSIL

11:55:37 wx upd end $$$

11:55:37 wx step_20 begin

11:55:38 wx step_20 end

11:55:44 wx step_20 begin

11:55:44 wx step_20 end

11:55:50 wx step_20 begin

11:55:50 wx step_20 end

11:55:57 wx step_20 begin

11:55:57 wx step_20 end

11:56:03 wx step_20 begin

11:56:03 wx step_20 end

11:56:09 wx upd begin $$$

11:56:09 received ULAK 061500Z 15004MPS 6000 HZ FEW200 BKN100 29/00 Q1015 XNOSIL

11:56:09 wx upd end $$$

11:56:09 wx step_20 begin

11:56:09 wx step_20 end

11:56:16 wx step_20 begin

11:56:16 wx step_20 end

11:56:22 wx step_20 begin

11:56:22 wx step_20 end

11:56:28 wx step_20 begin

11:56:29 wx step_20 end

11:56:35 wx step_20 begin

11:56:35 wx step_20 end

11:56:41 wx upd begin $$$

11:56:41 received ULAK 061500Z 15004MPS 6000 HZ FEW200 BKN100 29/00 Q1015 XNOSIL

11:56:41 wx upd end $$$

11:56:41 wx step_20 begin

11:56:42 wx step_20 end

11:56:48 wx step_20 begin

11:56:48 wx step_20 end

11:56:54 wx step_20 begin

11:56:54 wx step_20 end

11:57:00 wx step_20 begin

11:57:00 wx step_20 end

11:57:07 wx step_20 begin

11:57:07 wx step_20 end

11:57:13 wx upd begin $$$

11:57:13 received ULAK 061500Z 15004MPS 6000 HZ FEW200 BKN100 29/00 Q1015 XNOSIL

11:57:13 wx upd end $$$

11:57:13 wx step_20 begin

11:57:13 wx step_20 end

11:57:19 wx step_20 begin

11:57:20 wx step_20 end

11:57:26 wx step_20 begin

11:57:26 wx step_20 end

11:57:32 wx step_20 begin

11:57:32 wx step_20 end

11:57:38 wx step_20 begin

11:57:38 wx step_20 end

11:57:44 wx upd begin $$$

11:57:44 received ULAK 061500Z 15004MPS 6000 HZ FEW200 BKN100 29/00 Q1015 XNOSIL

11:57:44 wx upd end $$$

11:57:44 wx step_20 begin

11:57:45 wx step_20 end

11:57:51 wx step_20 begin

11:57:51 wx step_20 end

11:57:57 wx step_20 begin

11:57:57 wx step_20 end

11:58:03 wx step_20 begin

11:58:04 wx step_20 end

11:58:10 wx step_20 begin

11:58:10 wx step_20 end

11:58:16 wx upd begin $$$

11:58:16 received ULAK 061500Z 15004MPS 6000 HZ FEW200 BKN100 29/00 Q1015 XNOSIL

11:58:16 wx upd end $$$

11:58:16 wx step_20 begin

11:58:17 wx step_20 end

11:58:23 wx step_20 begin

11:58:23 wx step_20 end

11:58:30 wx step_20 begin

11:58:30 wx step_20 end

11:58:36 wx step_20 begin

11:58:36 wx step_20 end

11:58:42 wx step_20 begin

11:58:42 wx step_20 end

11:58:48 wx upd begin $$$

11:58:49 received ULAK 061500Z 15004MPS 6000 HZ FEW200 BKN100 29/00 Q1015 XNOSIL

11:58:49 wx upd end $$$

11:58:49 wx step_20 begin

11:58:49 wx step_20 end

11:58:55 wx step_20 begin

11:58:55 wx step_20 end

11:59:01 wx step_20 begin

11:59:01 wx step_20 end

11:59:07 wx step_20 begin

11:59:08 wx step_20 end

11:59:14 wx step_20 begin

11:59:14 wx step_20 end

11:59:20 wx upd begin $$$

11:59:20 received ULAK 061500Z 15004MPS 6000 HZ FEW200 BKN100 29/00 Q1015 XNOSIL

11:59:20 wx upd end $$$

11:59:20 wx step_20 begin

11:59:20 wx step_20 end

11:59:27 wx step_20 begin

11:59:27 wx step_20 end

11:59:33 wx step_20 begin

11:59:33 wx step_20 end

11:59:39 wx step_20 begin

11:59:40 wx step_20 end

11:59:46 wx step_20 begin

11:59:46 wx step_20 end

11:59:52 wx upd begin $$$

11:59:52 received ULAK 061500Z 15004MPS 6000 HZ FEW200 BKN100 29/00 Q1015 XNOSIL

11:59:52 wx upd end $$$

11:59:52 wx step_20 begin

11:59:53 wx step_20 end

11:59:59 wx step_20 begin

11:59:59 wx step_20 end

12:00:05 wx step_20 begin

12:00:05 wx step_20 end

12:00:11 wx step_20 begin

12:00:12 wx step_20 end

12:00:18 wx step_20 begin

12:00:18 wx step_20 end

12:00:24 wx upd begin $$$

12:00:24 received ULAK 061500Z 15004MPS 6000 HZ FEW200 BKN100 29/00 Q1015 XNOSIL

12:00:24 wx upd end $$$

12:00:24 wx step_20 begin

12:00:24 wx step_20 end

12:00:31 wx step_20 begin

12:00:31 wx step_20 end

12:00:37 wx step_20 begin

12:00:37 wx step_20 end

12:00:43 wx step_20 begin

12:00:44 wx step_20 end

12:00:50 wx step_20 begin

12:00:50 wx step_20 end

12:00:56 wx upd begin $$$

12:00:56 received ULAK 061500Z 15004MPS 6000 HZ FEW200 BKN100 29/00 Q1015 XNOSIL

12:00:56 wx upd end $$$

12:00:56 wx step_20 begin

12:00:57 wx step_20 end

12:01:03 wx step_20 begin

12:01:03 wx step_20 end

12:01:09 wx step_20 begin

12:01:09 wx step_20 end

12:01:15 wx step_20 begin

12:01:16 wx step_20 end

12:01:22 wx step_20 begin

12:01:22 wx step_20 end

12:01:28 wx upd begin $$$

12:01:29 received ULAK 061500Z 15004MPS 6000 HZ FEW200 BKN100 29/00 Q1015 XNOSIL

12:01:29 wx upd end $$$

12:01:29 wx step_20 begin

12:01:29 wx step_20 end

12:01:35 wx step_20 begin

12:01:36 wx step_20 end

12:01:42 wx step_20 begin

12:01:42 wx step_20 end

12:01:48 wx step_20 begin

12:01:48 wx step_20 end

12:01:54 wx step_20 begin

12:01:55 wx step_20 end

12:02:01 wx upd begin $$$

12:02:01 received ULAK 061500Z 15004MPS 6000 HZ FEW200 BKN100 29/00 Q1015 XNOSIL

12:02:01 wx upd end $$$

12:02:01 wx step_20 begin

12:02:01 wx step_20 end

12:02:07 wx step_20 begin

12:02:07 wx step_20 end

12:02:13 wx step_20 begin

12:02:14 wx step_20 end

12:02:20 wx step_20 begin

12:02:20 wx step_20 end

12:02:26 wx step_20 begin

12:02:26 wx step_20 end

12:02:32 wx upd begin $$$

12:02:32 received ULAK 061500Z 15004MPS 6000 HZ FEW200 BKN100 29/00 Q1015 XNOSIL

12:02:32 wx upd end $$$

12:02:32 wx step_20 begin

12:02:32 wx step_20 end

12:02:39 wx step_20 begin

12:02:39 wx step_20 end

12:02:45 wx step_20 begin

12:02:45 wx step_20 end

12:02:51 wx step_20 begin

12:02:51 wx step_20 end

12:02:58 wx step_20 begin

12:02:58 wx step_20 end

12:03:04 wx upd begin $$$

12:03:04 received ULAK 061500Z 15004MPS 6000 HZ FEW200 BKN100 29/00 Q1015 XNOSIL

12:03:04 wx upd end $$$

12:03:04 wx step_20 begin

12:03:05 wx step_20 end

12:03:11 wx step_20 begin

12:03:11 wx step_20 end

12:03:17 wx step_20 begin

12:03:17 wx step_20 end

12:03:23 wx step_20 begin

12:03:24 wx step_20 end

12:03:30 wx step_20 begin

12:03:30 wx step_20 end

12:03:36 wx upd begin $$$

12:03:36 received ULAK 061500Z 15004MPS 6000 HZ FEW200 BKN100 29/00 Q1015 XNOSIL

12:03:36 wx upd end $$$

12:03:36 wx step_20 begin

12:03:36 wx step_20 end

12:03:42 wx step_20 begin

12:03:43 wx step_20 end

12:03:49 wx step_20 begin

12:03:49 wx step_20 end

12:03:55 wx step_20 begin

12:03:55 wx step_20 end

12:04:02 wx step_20 begin

12:04:02 wx step_20 end

12:04:08 wx upd begin $$$

12:04:08 received ULAK 061500Z 15004MPS 6000 HZ FEW200 BKN100 29/00 Q1015 XNOSIL

12:04:08 wx upd end $$$

12:04:08 wx step_20 begin

12:04:08 wx step_20 end

12:04:14 wx step_20 begin

12:04:15 wx step_20 end

12:04:21 wx step_20 begin

12:04:21 wx step_20 end

12:04:27 wx step_20 begin

12:04:27 wx step_20 end

12:04:33 wx step_20 begin

12:04:33 wx step_20 end

12:04:39 wx upd begin $$$

12:04:39 received ULAK 061500Z 15004MPS 6000 HZ FEW200 BKN100 29/00 Q1015 XNOSIL

12:04:39 wx upd end $$$

12:04:39 wx step_20 begin

12:04:40 wx step_20 end

12:04:46 wx step_20 begin

12:04:46 wx step_20 end

12:04:52 wx step_20 begin

12:04:52 wx step_20 end

12:04:58 wx step_20 begin

12:04:59 wx step_20 end

12:05:05 wx step_20 begin

12:05:05 wx step_20 end

12:05:11 wx upd begin $$$

12:05:11 received ULAK 061500Z 15004MPS 6000 HZ FEW200 BKN100 29/00 Q1015 XNOSIL

12:05:11 wx upd end $$$

12:05:11 wx step_20 begin

12:05:11 wx step_20 end

12:05:18 wx step_20 begin

12:05:18 wx step_20 end

12:05:24 wx step_20 begin

12:05:24 wx step_20 end

12:05:30 wx step_20 begin

12:05:30 wx step_20 end

12:05:37 wx step_20 begin

12:05:37 wx step_20 end

12:05:43 wx upd begin $$$

12:05:43 received ULAK 061500Z 15004MPS 6000 HZ FEW200 BKN100 29/00 Q1015 XNOSIL

12:05:43 wx upd end $$$

12:05:43 wx step_20 begin

12:05:43 wx step_20 end

12:05:49 wx step_20 begin

12:05:50 wx step_20 end

12:05:56 wx step_20 begin

12:05:56 wx step_20 end

12:06:02 wx step_20 begin

12:06:02 wx step_20 end

12:06:08 wx step_20 begin

12:06:08 wx step_20 end

12:06:14 wx upd begin $$$

12:06:14 received ULAK 061500Z 15004MPS 6000 HZ FEW200 BKN100 29/00 Q1015 XNOSIL

12:06:14 wx upd end $$$

12:06:14 wx step_20 begin

12:06:15 wx step_20 end

12:06:21 wx step_20 begin

12:06:21 wx step_20 end

12:06:27 wx step_20 begin

12:06:27 wx step_20 end

12:06:33 wx step_20 begin

12:06:34 wx step_20 end

12:06:40 wx step_20 begin

12:06:40 wx step_20 end

12:06:46 wx upd begin $$$

12:06:46 received ULAK 061500Z 15004MPS 6000 HZ FEW200 BKN100 29/00 Q1015 XNOSIL

12:06:46 wx upd end $$$

12:06:46 wx step_20 begin

12:06:46 wx step_20 end

12:06:52 wx step_20 begin

12:06:53 wx step_20 end

12:06:59 wx step_20 begin

12:06:59 wx step_20 end

12:07:05 wx step_20 begin

12:07:05 wx step_20 end

12:07:12 wx step_20 begin

12:07:12 wx step_20 end

12:07:18 wx upd begin $$$

12:07:18 received ULAK 061500Z 15004MPS 6000 HZ FEW200 BKN100 29/00 Q1015 XNOSIL

12:07:18 wx upd end $$$

12:07:18 wx step_20 begin

12:07:18 wx step_20 end

12:07:25 wx step_20 begin

12:07:25 wx step_20 end

12:07:31 wx step_20 begin

12:07:31 wx step_20 end

12:07:37 wx step_20 begin

12:07:37 wx step_20 end

12:07:43 wx step_20 begin

12:07:44 wx step_20 end

12:07:50 wx upd begin $$$

12:07:50 received ULAK 061500Z 15004MPS 6000 HZ FEW200 BKN100 29/00 Q1015 XNOSIL

12:07:50 wx upd end $$$

12:07:50 wx step_20 begin

12:07:50 wx step_20 end

12:07:57 closest station found ULAA (FS=ULAA)

12:07:57 received ULAA 121130Z 12004MPS 9999 -SN BKN016 OVC/// M10/M10 Q0999 08390735 TEMPO 1000 SN BR BKN004 RMK QFE748/0997

12:07:57 simulated wind ok

12:07:57 wx generated for ULAA ULAA 121130Z 12004MPS 9999 -SN BKN016 OVC/// M10/M10 Q0999 08390735 TEMPO 1000 SN BR BKN004 RMK QFE748/0997

12:07:57 ULAA 999mb

12:07:57 ULAA -10C -> -85C

12:07:59 KSC set to 35 based on wx

12:07:59 fs9 wx updated for ULAA

12:07:59 wx step_20 begin

12:07:59 wx step_20 end

12:08:05 wx step_20 begin

12:08:05 wx step_20 end

12:08:11 wx step_20 begin

12:08:12 wx step_20 end

12:08:18 wx step_20 begin

12:08:18 wx step_20 end

12:08:24 wx step_20 begin

12:08:24 wx step_20 end

12:08:31 wx upd begin $$$

12:08:31 received ULAA 121130Z 12004MPS 9999 -SN BKN016 OVC/// M10/M10 Q0999 08390735 TEMPO 1000 SN BR BKN004 RMK QFE748/0997

12:08:31 wx upd end $$$

12:08:31 wx step_20 begin

12:08:31 wx step_20 end

12:08:37 wx step_20 begin

12:08:38 wx step_20 end

12:08:44 wx step_20 begin

12:08:44 wx step_20 end

12:08:50 wx step_20 begin

12:08:51 wx step_20 end

12:08:57 wx step_20 begin

12:08:57 wx step_20 end

12:09:03 wx upd begin $$$

12:09:03 received ULAA 121130Z 12004MPS 9999 -SN BKN016 OVC/// M10/M10 Q0999 08390735 TEMPO 1000 SN BR BKN004 RMK QFE748/0997

12:09:04 wx upd end $$$

12:09:04 wx step_20 begin

12:09:04 wx step_20 end

12:09:10 wx step_20 begin

12:09:11 wx step_20 end

12:09:17 wx step_20 begin

12:09:17 wx step_20 end

12:09:23 wx step_20 begin

12:09:23 wx step_20 end

12:09:29 wx step_20 begin

12:09:30 wx step_20 end

12:09:36 wx upd begin $$$

12:09:36 received ULAA 121130Z 12004MPS 9999 -SN BKN016 OVC/// M10/M10 Q0999 08390735 TEMPO 1000 SN BR BKN004 RMK QFE748/0997

12:09:36 wx upd end $$$

12:09:36 wx step_20 begin

12:09:36 wx step_20 end

12:09:42 wx step_20 begin

12:09:42 wx step_20 end

12:09:49 wx step_20 begin

12:09:49 wx step_20 end

12:09:55 wx step_20 begin

12:09:55 wx step_20 end

12:10:01 wx step_20 begin

12:10:01 wx step_20 end

12:10:07 wx upd begin $$$

12:10:07 received ULAA 121130Z 12004MPS 9999 -SN BKN016 OVC/// M10/M10 Q0999 08390735 TEMPO 1000 SN BR BKN004 RMK QFE748/0997

12:10:07 wx upd end $$$

12:10:07 wx step_20 begin

12:10:08 wx step_20 end

12:10:14 wx step_20 begin

12:10:14 wx step_20 end

12:10:21 wx step_20 begin

12:10:21 wx step_20 end

12:10:27 wx step_20 begin

12:10:27 wx step_20 end

12:10:34 wx step_20 begin

12:10:34 wx step_20 end

12:10:40 wx upd begin $$$

12:10:40 received ULAA 121130Z 12004MPS 9999 -SN BKN016 OVC/// M10/M10 Q0999 08390735 TEMPO 1000 SN BR BKN004 RMK QFE748/0997

12:10:40 wx upd end $$$

12:10:40 wx step_20 begin

12:10:40 wx step_20 end

12:10:47 wx step_20 begin

12:10:47 wx step_20 end

12:10:53 wx step_20 begin

12:10:53 wx step_20 end

12:10:59 wx step_20 begin

12:11:00 wx step_20 end

12:11:06 wx step_20 begin

12:11:06 wx step_20 end

12:11:12 wx upd begin $$$

12:11:12 received ULAA 121130Z 12004MPS 9999 -SN BKN016 OVC/// M10/M10 Q0999 08390735 TEMPO 1000 SN BR BKN004 RMK QFE748/0997

12:11:12 wx upd end $$$

12:11:12 wx step_20 begin

12:11:12 wx step_20 end

12:11:19 wx step_20 begin

12:11:19 wx step_20 end

12:11:25 wx step_20 begin

12:11:25 wx step_20 end

12:11:31 wx step_20 begin

12:11:31 wx step_20 end

12:11:38 wx step_20 begin

12:11:38 wx step_20 end

12:11:44 wx upd begin $$$

12:11:44 received ULAA 121130Z 12004MPS 9999 -SN BKN016 OVC/// M10/M10 Q0999 08390735 TEMPO 1000 SN BR BKN004 RMK QFE748/0997

12:11:44 wx upd end $$$

12:11:44 wx step_20 begin

12:11:44 wx step_20 end

12:11:51 wx step_20 begin

12:11:51 wx step_20 end

12:11:57 wx step_20 begin

12:11:57 wx step_20 end

12:12:04 wx step_20 begin

12:12:04 wx step_20 end

12:12:10 wx step_20 begin

12:12:10 wx step_20 end

12:12:17 wx upd begin $$$

12:12:17 received ULAA 121130Z 12004MPS 9999 -SN BKN016 OVC/// M10/M10 Q0999 08390735 TEMPO 1000 SN BR BKN004 RMK QFE748/0997

12:12:17 wx upd end $$$

12:12:17 wx step_20 begin

12:12:17 wx step_20 end

12:12:23 wx step_20 begin

12:12:23 wx step_20 end

12:12:29 wx step_20 begin

12:12:30 wx step_20 end

12:12:36 wx step_20 begin

12:12:36 wx step_20 end

12:12:42 wx step_20 begin

12:12:42 wx step_20 end

12:12:48 wx upd begin $$$

12:12:49 received ULAA 121130Z 12004MPS 9999 -SN BKN016 OVC/// M10/M10 Q0999 08390735 TEMPO 1000 SN BR BKN004 RMK QFE748/0997

12:12:49 wx upd end $$$

12:12:49 wx step_20 begin

12:12:49 wx step_20 end

12:12:55 wx step_20 begin

12:12:55 wx step_20 end

12:13:01 wx step_20 begin

12:13:01 wx step_20 end

12:13:07 wx step_20 begin

12:13:08 wx step_20 end

12:13:14 wx step_20 begin

12:13:14 wx step_20 end

12:13:20 wx upd begin $$$

12:13:20 received ULAA 121130Z 12004MPS 9999 -SN BKN016 OVC/// M10/M10 Q0999 08390735 TEMPO 1000 SN BR BKN004 RMK QFE748/0997

12:13:20 wx upd end $$$

12:13:20 wx step_20 begin

12:13:21 wx step_20 end

12:13:27 wx step_20 begin

12:13:27 wx step_20 end

12:13:33 wx step_20 begin

12:13:34 wx step_20 end

12:13:40 wx step_20 begin

12:13:40 wx step_20 end

12:13:46 wx step_20 begin

12:13:47 wx step_20 end

12:13:53 wx upd begin $$$

12:13:53 received ULAA 121130Z 12004MPS 9999 -SN BKN016 OVC/// M10/M10 Q0999 08390735 TEMPO 1000 SN BR BKN004 RMK QFE748/0997

12:13:53 wx upd end $$$

12:13:53 wx step_20 begin

12:13:53 wx step_20 end

12:14:00 wx step_20 begin

12:14:00 wx step_20 end

12:14:06 wx step_20 begin

12:14:06 wx step_20 end

12:14:12 wx step_20 begin

12:14:12 wx step_20 end

12:14:18 wx step_20 begin

12:14:19 wx step_20 end

12:14:25 wx upd begin $$$

12:14:25 received ULAA 121200Z 12004MPS 6000 -SN BKN012 OVC/// M10/M10 Q0998 08390735 TEMPO 1000 SN BR BKN004 RMK QFE748/0997

12:14:25 wx generated for ULAA ULAA 121200Z 12004MPS 6000 -SN BKN012 OVC/// M10/M10 Q0998 08390735 TEMPO 1000 SN BR BKN004 RMK QFE748/0997

12:14:25 ULAA 998mb

12:14:25 ULAA -10C -> -85C

12:14:27 KSC set to 35 based on wx

12:14:27 fs9 wx updated for ULAA

12:14:27 wx upd end $$$

12:14:27 wx step_20 begin

12:14:27 wx step_20 end

12:14:33 wx step_20 begin

12:14:33 wx step_20 end

12:14:39 wx step_20 begin

12:14:40 wx step_20 end

12:14:46 wx step_20 begin

12:14:46 wx step_20 end

12:14:52 wx step_20 begin

12:14:52 wx step_20 end

12:14:58 wx upd begin $$$

12:14:58 received ULAA 121200Z 12004MPS 6000 -SN BKN012 OVC/// M10/M10 Q0998 08390735 TEMPO 1000 SN BR BKN004 RMK QFE748/0997

12:14:58 wx upd end $$$

12:14:58 wx step_20 begin

12:14:58 wx step_20 end

12:15:05 wx step_20 begin

12:15:05 wx step_20 end

12:15:11 wx step_20 begin

12:15:12 wx step_20 end

12:15:18 wx step_20 begin

12:15:18 wx step_20 end

12:15:24 wx step_20 begin

12:15:24 wx step_20 end

12:15:30 wx upd begin $$$

12:15:30 received ULAA 121200Z 12004MPS 6000 -SN BKN012 OVC/// M10/M10 Q0998 08390735 TEMPO 1000 SN BR BKN004 RMK QFE748/0997

12:15:30 wx upd end $$$

12:15:30 wx step_20 begin

12:15:30 wx step_20 end

12:15:37 wx step_20 begin

12:15:37 wx step_20 end

12:15:43 wx step_20 begin

12:15:43 wx step_20 end

12:15:49 wx step_20 begin

12:15:50 wx step_20 end

12:15:56 wx step_20 begin

12:15:56 wx step_20 end

12:16:02 wx upd begin $$$

12:16:02 received ULAA 121200Z 12004MPS 6000 -SN BKN012 OVC/// M10/M10 Q0998 08390735 TEMPO 1000 SN BR BKN004 RMK QFE748/0997

12:16:02 wx upd end $$$

12:16:02 wx step_20 begin

12:16:02 wx step_20 end

12:16:08 wx step_20 begin

12:16:09 wx step_20 end

12:16:15 wx step_20 begin

12:16:15 wx step_20 end

12:16:21 wx step_20 begin

12:16:21 wx step_20 end

12:16:27 wx step_20 begin

12:16:27 wx step_20 end

12:16:34 wx upd begin $$$

12:16:34 received ULAA 121200Z 12004MPS 6000 -SN BKN012 OVC/// M10/M10 Q0998 08390735 TEMPO 1000 SN BR BKN004 RMK QFE748/0997

12:16:34 wx upd end $$$

12:16:34 wx step_20 begin

12:16:34 wx step_20 end

12:16:40 wx step_20 begin

12:16:41 wx step_20 end

12:16:47 wx step_20 begin

12:16:47 wx step_20 end

12:16:53 wx step_20 begin

12:16:53 wx step_20 end

12:16:59 wx step_20 begin

12:17:00 wx step_20 end

12:17:06 wx upd begin $$$

12:17:06 received ULAA 121200Z 12004MPS 6000 -SN BKN012 OVC/// M10/M10 Q0998 08390735 TEMPO 1000 SN BR BKN004 RMK QFE748/0997

12:17:06 wx upd end $$$

12:17:06 wx step_20 begin

12:17:06 wx step_20 end

12:17:13 wx step_20 begin

12:17:13 wx step_20 end

12:17:19 wx step_20 begin

12:17:19 wx step_20 end

12:17:25 wx step_20 begin

12:17:26 wx step_20 end

12:17:32 wx step_20 begin

12:17:32 wx step_20 end

12:17:38 wx upd begin $$$

12:17:39 received ULAA 121200Z 12004MPS 6000 -SN BKN012 OVC/// M10/M10 Q0998 08390735 TEMPO 1000 SN BR BKN004 RMK QFE748/0997

12:17:39 wx upd end $$$

12:17:39 wx step_20 begin

12:17:39 wx step_20 end

12:17:45 wx step_20 begin

12:17:46 wx step_20 end

12:17:52 wx step_20 begin

12:17:52 wx step_20 end

12:17:58 wx step_20 begin

12:17:58 wx step_20 end

12:18:05 wx step_20 begin

12:18:05 wx step_20 end

12:18:11 wx upd begin $$$

12:18:12 received ULAA 121200Z 12004MPS 6000 -SN BKN012 OVC/// M10/M10 Q0998 08390735 TEMPO 1000 SN BR BKN004 RMK QFE748/0997

12:18:12 wx upd end $$$

12:18:12 wx step_20 begin

12:18:12 wx step_20 end

12:18:19 wx step_20 begin

12:18:19 wx step_20 end

12:18:25 wx step_20 begin

12:18:25 wx step_20 end

12:18:31 wx step_20 begin

12:18:32 wx step_20 end

12:18:38 wx step_20 begin

12:18:38 wx step_20 end

12:18:44 wx upd begin $$$

12:18:44 received ULAA 121200Z 12004MPS 6000 -SN BKN012 OVC/// M10/M10 Q0998 08390735 TEMPO 1000 SN BR BKN004 RMK QFE748/0997

12:18:44 wx upd end $$$

12:18:44 wx step_20 begin

12:18:45 wx step_20 end

12:18:51 wx step_20 begin

12:18:51 wx step_20 end

12:18:57 wx step_20 begin

12:18:57 wx step_20 end

12:19:04 wx step_20 begin

12:19:04 wx step_20 end

12:19:10 wx step_20 begin

12:19:10 wx step_20 end

12:19:17 wx upd begin $$$

12:19:17 received ULAA 121200Z 12004MPS 6000 -SN BKN012 OVC/// M10/M10 Q0998 08390735 TEMPO 1000 SN BR BKN004 RMK QFE748/0997

12:19:17 wx upd end $$$

12:19:17 wx step_20 begin

12:19:17 wx step_20 end

12:19:24 wx step_20 begin

12:19:24 wx step_20 end

12:19:30 wx step_20 begin

12:19:30 wx step_20 end

12:19:36 wx step_20 begin

12:19:37 wx step_20 end

12:19:43 wx step_20 begin

12:19:43 wx step_20 end

12:19:49 wx upd begin $$$

12:19:50 received ULAA 121200Z 12004MPS 6000 -SN BKN012 OVC/// M10/M10 Q0998 08390735 TEMPO 1000 SN BR BKN004 RMK QFE748/0997

12:19:50 wx upd end $$$

12:19:50 wx step_20 begin

12:19:50 wx step_20 end

12:19:56 wx step_20 begin

12:19:56 wx step_20 end

12:20:03 wx step_20 begin

12:20:03 wx step_20 end

12:20:09 wx step_20 begin

12:20:09 wx step_20 end

12:20:15 wx step_20 begin

12:20:15 wx step_20 end

12:20:22 wx upd begin $$$

12:20:22 received ULAA 121200Z 12004MPS 6000 -SN BKN012 OVC/// M10/M10 Q0998 08390735 TEMPO 1000 SN BR BKN004 RMK QFE748/0997

12:20:22 wx upd end $$$

12:20:22 wx step_20 begin

12:20:22 wx step_20 end

12:20:29 wx step_20 begin

12:20:29 wx step_20 end

12:20:35 wx step_20 begin

12:20:35 wx step_20 end

12:20:41 wx step_20 begin

12:20:41 wx step_20 end

12:20:47 wx step_20 begin

12:20:48 wx step_20 end

12:20:54 wx upd begin $$$

12:20:54 received ULAA 121200Z 12004MPS 6000 -SN BKN012 OVC/// M10/M10 Q0998 08390735 TEMPO 1000 SN BR BKN004 RMK QFE748/0997

12:20:54 wx upd end $$$

12:20:54 wx step_20 begin

12:20:54 wx step_20 end

12:21:01 wx step_20 begin

12:21:01 wx step_20 end

12:21:07 wx step_20 begin

12:21:07 wx step_20 end

12:21:13 wx step_20 begin

12:21:14 wx step_20 end

12:21:20 wx step_20 begin

12:21:20 wx step_20 end

12:21:26 wx upd begin $$$

12:21:26 received ULAA 121200Z 12004MPS 6000 -SN BKN012 OVC/// M10/M10 Q0998 08390735 TEMPO 1000 SN BR BKN004 RMK QFE748/0997

12:21:26 wx upd end $$$

12:21:26 wx step_20 begin

12:21:26 wx step_20 end

12:21:33 wx step_20 begin

12:21:33 wx step_20 end

12:21:39 wx step_20 begin

12:21:39 wx step_20 end

12:21:45 wx step_20 begin

12:21:46 wx step_20 end

12:21:52 wx step_20 begin

12:21:52 wx step_20 end

12:21:58 wx upd begin $$$

12:21:58 received ULAA 121200Z 12004MPS 6000 -SN BKN012 OVC/// M10/M10 Q0998 08390735 TEMPO 1000 SN BR BKN004 RMK QFE748/0997

12:21:58 wx upd end $$$

12:21:58 wx step_20 begin

12:21:58 wx step_20 end

12:22:05 wx step_20 begin

12:22:05 wx step_20 end

12:22:11 wx step_20 begin

12:22:11 wx step_20 end

12:22:18 wx step_20 begin

12:22:18 wx step_20 end

12:22:24 wx step_20 begin

12:22:24 wx step_20 end

12:22:30 wx upd begin $$$

12:22:30 received ULAA 121200Z 12004MPS 6000 -SN BKN012 OVC/// M10/M10 Q0998 08390735 TEMPO 1000 SN BR BKN004 RMK QFE748/0997

12:22:30 wx upd end $$$

12:22:30 wx step_20 begin

12:22:30 wx step_20 end

12:22:37 wx step_20 begin

12:22:37 wx step_20 end

12:22:44 wx step_20 begin

12:22:44 wx step_20 end

12:22:50 wx step_20 begin

12:22:50 wx step_20 end

12:22:56 wx step_20 begin

12:22:57 wx step_20 end

12:23:03 wx upd begin $$$

12:23:03 received ULAA 121200Z 12004MPS 6000 -SN BKN012 OVC/// M10/M10 Q0998 08390735 TEMPO 1000 SN BR BKN004 RMK QFE748/0997

12:23:03 wx upd end $$$

12:23:03 wx step_20 begin

12:23:04 wx step_20 end

12:23:10 wx step_20 begin

12:23:10 wx step_20 end

12:23:16 wx step_20 begin

12:23:17 wx step_20 end

12:23:23 wx step_20 begin

12:23:23 wx step_20 end

12:23:29 wx step_20 begin

12:23:29 wx step_20 end

12:23:35 wx upd begin $$$

12:23:35 received ULAA 121200Z 12004MPS 6000 -SN BKN012 OVC/// M10/M10 Q0998 08390735 TEMPO 1000 SN BR BKN004 RMK QFE748/0997

12:23:35 wx upd end $$$

12:23:35 wx step_20 begin

12:23:36 wx step_20 end

12:23:42 wx step_20 begin

12:23:42 wx step_20 end

12:23:48 wx step_20 begin

12:23:48 wx step_20 end

12:23:55 wx step_20 begin

12:23:55 wx step_20 end

12:24:02 wx step_20 begin

12:24:02 wx step_20 end

12:24:08 wx upd begin $$$

12:24:08 received ULAA 121200Z 12004MPS 6000 -SN BKN012 OVC/// M10/M10 Q0998 08390735 TEMPO 1000 SN BR BKN004 RMK QFE748/0997

12:24:08 wx upd end $$$

12:24:08 wx step_20 begin

12:24:08 wx step_20 end

12:24:15 wx step_20 begin

12:24:15 wx step_20 end

12:24:21 wx step_20 begin

12:24:21 wx step_20 end

12:24:28 wx step_20 begin

12:24:28 wx step_20 end

12:24:34 wx step_20 begin

12:24:34 wx step_20 end

12:24:40 wx upd begin $$$

12:24:40 received ULAA 121200Z 12004MPS 6000 -SN BKN012 OVC/// M10/M10 Q0998 08390735 TEMPO 1000 SN BR BKN004 RMK QFE748/0997

12:24:40 wx upd end $$$

12:24:41 wx step_20 begin

12:24:41 wx step_20 end

12:24:47 wx step_20 begin

12:24:47 wx step_20 end

12:24:54 wx step_20 begin

12:24:54 wx step_20 end

12:25:05 closest station found DGTK (FS=DGTK)

12:25:06 received DGTK 151300Z 24008KT 9999 FEW014 FEW028CB 33/27 Q1009 CB - NW

12:25:06 simulated wind ok

12:25:06 wx generated for DGTK DGTK 151300Z 24008KT 9999 FEW014 FEW028CB 33/27 Q1009 CB - NW

12:25:06 DGTK 1009mb

12:25:06 DGTK 33C -> -85C

12:25:07 KSC set to 90 based on wx

12:25:07 fs9 wx updated for DGTK

12:25:07 wx step_20 begin

12:25:07 wx step_20 end

12:25:21 FS Not Found

Edited by NorthWestern

Share this post


Link to post
Share on other sites

UPD 12.1.12 еще одна попытка.

На этот раз помогло, спасибо.

Немножко не так. Оверкаст значает, что во всех восьми секторах окружности видимой части неба над головой наблюдателя присутствует облачность. При этом, свкозь cirrus или cirrostratus вы будете замечательно видеть небо. Cirrocumulus вообще выглядит, как собрание отдельных малениких белых ватных шариков, между которыми достаточно большое расстояние, а толщина слоя совсем маленькая.

Понятно, да действительно на тип облаков и другие факторы влияют. буду еще время от времени сравнивать с реалом.

 

FE поставил, но разницы не заметно.

 

вот поправил метеостанции для Украины (некоторых не было,некоторые имели неправильную высоту). измени в своих базах.

 

 

stations.dat

UKBB;BORISPOL'/KEIV;Ukraine;50.333302;30.9667;390

UKCC;DONETSK;Ukraine;48.0833333333333;37.75;791

UKCW;LUHANSK;Ukraine;48.418056;39.376111;636

UKDD;DNIPROPETROVSK;Ukraine;48.5333333333333;34.6666666666667;482

UKDE;ZAPOROZHYE;Ukraine;47.867;35.315;373

UKDR;KRIVYY RIH;Ukraine;48.05;33.2166666666667;406

UKFF;SIMFEROPOL';Ukraine;44.6833;34.133301;594

UKHH;HAR'KOV;Ukraine;49.966702;36.133301;499

UKKE;CHERKASY;Ukraine;49.416111;31.996389;374

UKKK;KIEV/ZHULYANY;Ukraine;50.400002;30.5667;551

UKKM;ANTONOV;Ukraine;50.600278;30.193611;515

UKLI;IVANO-FRANKIVSK;Ukraine;48.8833333333333;24.6833333333333;919

UKLL;L VIV;Ukraine;49.8167;23.950001;1066

UKLN;CHERNIVTSI;Ukraine;48.260000;25.981667;826

UKLR;ROVNO;Ukraine;50.6;26.1333333333333;755

UKLU;UZHHOROD;Ukraine;48.634722;22.264722;384

UKON;MYKOLAIV;Ukraine;47.058056;31.920833;184

UKOO;ODESSA/TSENTRALN;Ukraine;46.4333;30.766701;115

 

stations_fs.dat

UKBB, 50.333302, 30.966700, 121

UKCC, 48.0833333333333, 37.75, 241

UKDD, 48.5333333333333, 34.6666666666667, 147

UKDE, 47.867, 35.315, 114

UKDR, 48.05, 33.2166666666667, 124

UKFF, 44.683300, 34.133301, 180

UKHH, 49.966702, 36.133301, 154

UKKE, 49.416111, 31.996389, 114

UKKK, 50.400002, 30.566700, 166

UKLI, 48.8833333333333, 24.6833333333333, 280

UKLL, 49.816700, 23.950001, 319

UKLR, 50.6, 26.1333333333333, 230

UKLU, 48.634722, 22.264722, 117

UKON, 47.058056, 31.920833, 56

UKOO, 46.433300, 30.766701, 42

UKWW, 49.2344, 28.5983, 292

 

 

Edited by Phemmer

Share this post


Link to post
Share on other sites

Лог с версией 12.1.12

 

15:28:55 init begin FSATIS version 12.1.12

15:28:55 options online wx wind noaa

15:28:56 FSUIPC 3.990

15:28:59 wx init begin ===

15:28:59 XXXX 0mb

15:28:59 XXXX 0C -> 0C

15:29:00 wx cleared

15:29:05 closest station found UUWW (FS=UUWW)

15:29:06 received UUWW 121500Z 20005MPS CAVOK M05/M06 Q1004 19511045 NOSIG

15:29:08 load aloft 2522M05 2629M09 2730M15 2835M20 3043M29 3259M42 3265M55 3269M62 3051M64 2949M65

15:29:09 wx generated for UUWW UUWW 121500Z 20005MPS CAVOK M05/M06 Q1004 19511045 NOSIG

15:29:09 UUWW 1004mb

15:29:09 UUWW -5C -> -65C

15:29:11 KSC set to 45 based on wx

15:29:11 fs9 wx updated for UUWW

15:29:11 wx init end ===

15:40:26 FS Not Found

15:46:28 wx upd begin $$$

15:46:28 received UUWW 121530Z 20004MPS CAVOK M04/M05 Q1004 19511045 NOSIG

15:46:28 wx generated for UUWW UUWW 121530Z 20004MPS CAVOK M04/M05 Q1004 19511045 NOSIG

15:46:29 UUWW 1004mb

15:46:29 UUWW -4C -> -65C

15:46:30 KSC set to 45 based on wx

15:46:30 fs9 wx updated for UUWW

15:46:30 wx upd end $$$

15:46:34 load atis begin %%%

15:46:36 atis

15:46:36 received UUWW 121530Z 20004MPS CAVOK M04/M05 Q1004 19511045 NOSIG

15:46:36 KSC set to 45 based on atis

15:46:41 load atis end %%%

15:48:14 wx upd begin $$$

15:48:15 received UUWW 121530Z 20004MPS CAVOK M04/M05 Q1004 19511045 NOSIG

15:48:15 wx upd end $$$

15:49:49 wx upd begin $$$

15:49:49 received UUWW 121530Z 20004MPS CAVOK M04/M05 Q1004 19511045 NOSIG

15:49:49 wx upd end $$$

15:51:32 wx upd begin $$$

15:51:32 received UUWW 121530Z 20004MPS CAVOK M04/M05 Q1004 19511045 NOSIG

15:51:32 wx upd end $$$

15:53:07 wx upd begin $$$

15:53:07 received UUWW 121530Z 20004MPS CAVOK M04/M05 Q1004 19511045 NOSIG

15:53:07 wx upd end $$$

15:54:42 wx upd begin $$$

15:54:43 received UUWW 121530Z 20004MPS CAVOK M04/M05 Q1004 19511045 NOSIG

15:54:43 wx upd end $$$

15:56:18 wx upd begin $$$

15:56:18 received UUWW 121530Z 20004MPS CAVOK M04/M05 Q1004 19511045 NOSIG

15:56:18 wx upd end $$$

15:57:52 wx upd begin $$$

15:57:52 received UUWW 121530Z 20004MPS CAVOK M04/M05 Q1004 19511045 NOSIG

15:57:52 wx upd end $$$

15:59:27 wx upd begin $$$

15:59:27 received UUWW 121530Z 20004MPS CAVOK M04/M05 Q1004 19511045 NOSIG

15:59:27 wx upd end $$$

16:01:01 wx upd begin $$$

16:01:01 received UUWW 121530Z 20004MPS CAVOK M04/M05 Q1004 19511045 NOSIG

16:01:01 wx upd end $$$

16:02:37 wx upd begin $$$

16:02:37 received UUWW 121530Z 20004MPS CAVOK M04/M05 Q1004 19511045 NOSIG

16:02:37 wx upd end $$$

16:03:15 closest station found UUEE (FS=UUEE)

16:03:15 received UUEE 121530Z 22005MPS CAVOK M03/M05 Q1003 NOSIG RMK 75420349 25420349

16:03:17 load aloft 2423M05 2629M09 2631M15 2835M20 3042M29 3158M42 3264M55 3163M63 3051M65 2950M65

16:03:17 wx generated for UUEE UUEE 121530Z 22005MPS CAVOK M03/M05 Q1003 NOSIG RMK 75420349 25420349

16:03:17 UUEE 1003mb

16:03:17 UUEE -3C -> -65C

16:03:18 KSC set to 49 based on wx

16:03:18 fs9 wx updated for UUEE

16:04:52 wx upd begin $$$

16:04:53 received UUEE 121530Z 22005MPS CAVOK M03/M05 Q1003 NOSIG RMK 75420349 25420349

16:04:53 wx upd end $$$

16:06:27 wx upd begin $$$

16:06:27 received UUEE 121530Z 22005MPS CAVOK M03/M05 Q1003 NOSIG RMK 75420349 25420349

16:06:27 wx upd end $$$

16:08:01 wx upd begin $$$

16:08:01 received UUEE 121530Z 22005MPS CAVOK M03/M05 Q1003 NOSIG RMK 75420349 25420349

16:08:01 wx upd end $$$

16:09:35 wx upd begin $$$

16:09:35 received UUEE 121530Z 22005MPS CAVOK M03/M05 Q1003 NOSIG RMK 75420349 25420349

16:09:35 wx upd end $$$

16:11:09 wx upd begin $$$

16:11:10 received UUEE 121530Z 22005MPS CAVOK M03/M05 Q1003 NOSIG RMK 75420349 25420349

16:11:10 wx upd end $$$

16:12:43 wx upd begin $$$

16:12:44 received UUEE 121600Z 21005MPS CAVOK M04/M05 Q1003 NOSIG RMK 75420349 25420349

16:12:44 wx generated for UUEE UUEE 121600Z 21005MPS CAVOK M04/M05 Q1003 NOSIG RMK 75420349 25420349

16:12:44 UUEE 1003mb

16:12:44 UUEE -4C -> -65C

16:12:45 KSC set to 49 based on wx

16:12:45 fs9 wx updated for UUEE

16:12:45 wx upd end $$$

16:14:20 wx upd begin $$$

16:14:21 received UUEE 121600Z 21005MPS CAVOK M04/M05 Q1003 NOSIG RMK 75420349 25420349

16:14:21 wx upd end $$$

16:15:55 wx upd begin $$$

16:15:55 received UUEE 121600Z 21005MPS CAVOK M04/M05 Q1003 NOSIG RMK 75420349 25420349

16:15:55 wx upd end $$$

16:16:40 closest station found UUEM (FS=UUEM)

16:16:41 received UUEM 280500Z 20009MPS 8000 BR OVC015 M03/M05 Q1031 NOSIG RMK QFE760

16:16:41 load aloft TH/T<TD <F/T</T </

16:16:41 wx generated for UUEM UUEM 280500Z 20009MPS 8000 BR OVC015 M03/M05 Q1031 NOSIG RMK QFE760

16:16:42 UUEM 1031mb

16:16:42 UUEM -3C -> 0C

16:16:43 KSC set to 77 based on wx

16:16:43 fs9 wx updated for UUEM

16:18:16 wx upd begin $$$

16:18:17 received UUEM 280500Z 20009MPS 8000 BR OVC015 M03/M05 Q1031 NOSIG RMK QFE760

16:18:17 wx upd end $$$

16:19:51 wx upd begin $$$

16:19:51 received UUEM 280500Z 20009MPS 8000 BR OVC015 M03/M05 Q1031 NOSIG RMK QFE760

16:19:51 wx upd end $$$

16:21:25 wx upd begin $$$

16:21:26 received UUEM 280500Z 20009MPS 8000 BR OVC015 M03/M05 Q1031 NOSIG RMK QFE760

16:21:26 wx upd end $$$

16:21:57 closest station found ULWW (FS=ULWW)

16:21:57 received ULWW 121600Z 24003MPS 9999 BKN023CB OVC/// M02/M03 Q0997 TEMPO 2000 SHSN RMK QFE737 15410150

16:22:01 load aloft TH/T<TD <F/T</T </

16:22:01 wx generated for ULWW ULWW 121600Z 24003MPS 9999 BKN023CB OVC/// M02/M03 Q0997 TEMPO 2000 SHSN RMK QFE737 15410150

16:22:01 ULWW 997mb

16:22:01 ULWW -2C -> 0C

16:22:03 KSC set to 50 based on wx

16:22:03 fs9 wx updated for ULWW

16:23:36 wx upd begin $$$

16:23:37 received ULWW 121600Z 24003MPS 9999 BKN023CB OVC/// M02/M03 Q0997 TEMPO 2000 SHSN RMK QFE737 15410150

16:23:37 wx upd end $$$

16:24:13 wx refresh begin $$$

16:24:14 closest station found ULWW (FS=ULWW)

16:24:14 received ULWW 121600Z 24003MPS 9999 BKN023CB OVC/// M02/M03 Q0997 TEMPO 2000 SHSN RMK QFE737 15410150

16:24:14 simulated wind ok

16:24:14 wx generated for ULWW ULWW 121600Z 24003MPS 9999 BKN023CB OVC/// M02/M03 Q0997 TEMPO 2000 SHSN RMK QFE737 15410150

16:24:14 ULWW 997mb

16:24:14 ULWW -2C -> -85C

16:24:15 KSC set to 50 based on wx

16:24:15 fs9 wx updated for ULWW

16:24:15 wx refresh end $$$

16:25:50 wx upd begin $$$

16:25:50 received ULWW 121600Z 24003MPS 9999 BKN023CB OVC/// M02/M03 Q0997 TEMPO 2000 SHSN RMK QFE737 15410150

16:25:50 wx upd end $$$

16:27:24 wx upd begin $$$

16:27:24 received ULWW 121600Z 24003MPS 9999 BKN023CB OVC/// M02/M03 Q0997 TEMPO 2000 SHSN RMK QFE737 15410150

16:27:24 wx upd end $$$

16:28:58 wx upd begin $$$

16:28:59 received ULWW 121600Z 24003MPS 9999 BKN023CB OVC/// M02/M03 Q0997 TEMPO 2000 SHSN RMK QFE737 15410150

16:28:59 wx upd end $$$

16:30:32 wx upd begin $$$

16:30:33 received ULWW 121600Z 24003MPS 9999 BKN023CB OVC/// M02/M03 Q0997 TEMPO 2000 SHSN RMK QFE737 15410150

16:30:33 wx upd end $$$

16:32:07 wx upd begin $$$

16:32:07 received ULWW 121600Z 24003MPS 9999 BKN023CB OVC/// M02/M03 Q0997 TEMPO 2000 SHSN RMK QFE737 15410150

16:32:07 wx upd end $$$

16:33:42 wx upd begin $$$

16:33:42 received ULWW 121600Z 24003MPS 9999 BKN023CB OVC/// M02/M03 Q0997 TEMPO 2000 SHSN RMK QFE737 15410150

16:33:42 wx upd end $$$

16:35:16 wx upd begin $$$

16:35:16 received ULWW 121600Z 24003MPS 9999 BKN023CB OVC/// M02/M03 Q0997 TEMPO 2000 SHSN RMK QFE737 15410150

16:35:16 wx upd end $$$

16:36:50 wx upd begin $$$

16:36:51 received ULWW 121600Z 24003MPS 9999 BKN023CB OVC/// M02/M03 Q0997 TEMPO 2000 SHSN RMK QFE737 15410150

16:36:51 wx upd end $$$

16:38:25 wx upd begin $$$

16:38:25 received ULWW 121600Z 24003MPS 9999 BKN023CB OVC/// M02/M03 Q0997 TEMPO 2000 SHSN RMK QFE737 15410150

16:38:25 wx upd end $$$

16:39:59 wx upd begin $$$

16:39:59 received ULWW 121600Z 24003MPS 9999 BKN023CB OVC/// M02/M03 Q0997 TEMPO 2000 SHSN RMK QFE737 15410150

16:39:59 wx upd end $$$

16:41:33 wx upd begin $$$

16:41:34 received ULWW 121600Z 24003MPS 9999 BKN023CB OVC/// M02/M03 Q0997 TEMPO 2000 SHSN RMK QFE737 15410150

16:41:34 wx upd end $$$

16:43:08 wx upd begin $$$

16:43:08 received ULWW 121600Z 24003MPS 9999 BKN023CB OVC/// M02/M03 Q0997 TEMPO 2000 SHSN RMK QFE737 15410150

16:43:08 wx upd end $$$

16:43:52 closest station found ULWT (FS=ULWT)

16:43:52 received NOT FOUND

16:43:52 No wx data for ULWT

16:43:58 closest station found ULWW (FS=ULWW)

16:43:58 received ULWW 121600Z 24003MPS 9999 BKN023CB OVC/// M02/M03 Q0997 TEMPO 2000 SHSN RMK QFE737 15410150

16:43:58 simulated wind ok

16:43:58 wx generated for ULWW ULWW 121600Z 24003MPS 9999 BKN023CB OVC/// M02/M03 Q0997 TEMPO 2000 SHSN RMK QFE737 15410150

16:43:58 ULWW 997mb

16:43:59 ULWW -2C -> -85C

16:44:00 KSC set to 50 based on wx

16:44:00 fs9 wx updated for ULWW

16:45:33 wx upd begin $$$

16:45:34 received ULWW 121600Z 24003MPS 9999 BKN023CB OVC/// M02/M03 Q0997 TEMPO 2000 SHSN RMK QFE737 15410150

16:45:34 wx upd end $$$

16:47:08 wx upd begin $$$

16:47:08 received ULWW 121600Z 24003MPS 9999 BKN023CB OVC/// M02/M03 Q0997 TEMPO 2000 SHSN RMK QFE737 15410150

16:47:08 wx upd end $$$

16:48:42 wx upd begin $$$

16:48:42 received ULWW 121600Z 24003MPS 9999 BKN023CB OVC/// M02/M03 Q0997 TEMPO 2000 SHSN RMK QFE737 15410150

16:48:42 wx upd end $$$

16:50:16 wx upd begin $$$

16:50:17 received ULWW 121600Z 24003MPS 9999 BKN023CB OVC/// M02/M03 Q0997 TEMPO 2000 SHSN RMK QFE737 15410150

16:50:17 wx upd end $$$

16:51:50 wx upd begin $$$

16:51:51 received ULWW 121600Z 24003MPS 9999 BKN023CB OVC/// M02/M03 Q0997 TEMPO 2000 SHSN RMK QFE737 15410150

16:51:51 wx upd end $$$

16:53:25 wx upd begin $$$

16:53:25 received ULWW 121600Z 24003MPS 9999 BKN023CB OVC/// M02/M03 Q0997 TEMPO 2000 SHSN RMK QFE737 15410150

16:53:25 wx upd end $$$

16:54:09 closest station found ULAK (FS=ULAK)

16:54:09 received ULAK 061500Z 15004MPS 6000 HZ FEW200 BKN100 29/00 Q1015 XNOSIL

16:54:09 simulated wind ok

16:54:09 wx generated for ULAK ULAK 061500Z 15004MPS 6000 HZ FEW200 BKN100 29/00 Q1015 XNOSIL

16:54:09 ULAK 1015mb

16:54:09 ULAK 29C -> -85C

16:54:11 KSC set to 65 based on wx

16:54:11 fs9 wx updated for ULAK

16:55:45 wx upd begin $$$

16:55:45 received ULAK 061500Z 15004MPS 6000 HZ FEW200 BKN100 29/00 Q1015 XNOSIL

16:55:45 wx upd end $$$

16:57:19 wx upd begin $$$

16:57:19 received ULAK 061500Z 15004MPS 6000 HZ FEW200 BKN100 29/00 Q1015 XNOSIL

16:57:19 wx upd end $$$

16:58:53 wx upd begin $$$

16:58:53 received ULAK 061500Z 15004MPS 6000 HZ FEW200 BKN100 29/00 Q1015 XNOSIL

16:58:53 wx upd end $$$

17:00:27 wx upd begin $$$

17:00:28 received ULAK 061500Z 15004MPS 6000 HZ FEW200 BKN100 29/00 Q1015 XNOSIL

17:00:28 wx upd end $$$

17:02:02 wx upd begin $$$

17:02:02 received ULAK 061500Z 15004MPS 6000 HZ FEW200 BKN100 29/00 Q1015 XNOSIL

17:02:02 wx upd end $$$

17:03:36 wx upd begin $$$

17:03:36 received ULAK 061500Z 15004MPS 6000 HZ FEW200 BKN100 29/00 Q1015 XNOSIL

17:03:36 wx upd end $$$

17:05:10 wx upd begin $$$

17:05:10 received ULAK 061500Z 15004MPS 6000 HZ FEW200 BKN100 29/00 Q1015 XNOSIL

17:05:10 wx upd end $$$

17:06:44 wx upd begin $$$

17:06:45 received ULAK 061500Z 15004MPS 6000 HZ FEW200 BKN100 29/00 Q1015 XNOSIL

17:06:45 wx upd end $$$

17:08:19 wx upd begin $$$

17:08:19 received ULAK 061500Z 15004MPS 6000 HZ FEW200 BKN100 29/00 Q1015 XNOSIL

17:08:19 wx upd end $$$

17:09:53 wx upd begin $$$

17:09:53 received ULAK 061500Z 15004MPS 6000 HZ FEW200 BKN100 29/00 Q1015 XNOSIL

17:09:53 wx upd end $$$

17:10:31 closest station found ULAA (FS=ULAA)

17:10:31 received ULAA 121630Z 11004MPS 9999 -SN BKN016 OVC/// M10/M11 Q0996 BECMG 2000 SN BKN005 RMK QFE746/0994 SC040

17:10:31 simulated wind ok

17:10:31 wx generated for ULAA ULAA 121630Z 11004MPS 9999 -SN BKN016 OVC/// M10/M11 Q0996 BECMG 2000 SN BKN005 RMK QFE746/0994 SC040

17:10:31 ULAA 996mb

17:10:31 ULAA -10C -> -85C

17:10:33 KSC set to 44 based on wx

17:10:33 fs9 wx updated for ULAA

17:12:06 wx upd begin $$$

17:12:07 received ULAA 121630Z 11004MPS 9999 -SN BKN016 OVC/// M10/M11 Q0996 BECMG 2000 SN BKN005 RMK QFE746/0994 SC040

17:12:07 wx upd end $$$

17:13:41 wx upd begin $$$

17:13:41 received ULAA 121630Z 11004MPS 9999 -SN BKN016 OVC/// M10/M11 Q0996 BECMG 2000 SN BKN005 RMK QFE746/0994 SC040

17:13:41 wx upd end $$$

17:14:06 adf tuneup ))))))

17:14:09 station 2 on

17:15:24 wx upd begin $$$

17:15:24 received ULAA 121700Z 12004MPS 9999 -SN SCT016 OVC/// M10/M11 Q0995 NOSIG RMK QFE746/0994 SC040

17:15:24 wx generated for ULAA ULAA 121700Z 12004MPS 9999 -SN SCT016 OVC/// M10/M11 Q0995 NOSIG RMK QFE746/0994 SC040

17:15:25 ULAA 995mb

17:15:25 ULAA -10C -> -85C

17:15:26 KSC set to 64 based on wx

17:15:26 fs9 wx updated for ULAA

17:15:26 wx upd end $$$

17:17:00 wx upd begin $$$

17:17:01 received ULAA 121700Z 12004MPS 9999 -SN SCT016 OVC/// M10/M11 Q0995 NOSIG RMK QFE746/0994 SC040

17:17:01 wx upd end $$$

17:18:34 wx upd begin $$$

17:18:35 received ULAA 121700Z 12004MPS 9999 -SN SCT016 OVC/// M10/M11 Q0995 NOSIG RMK QFE746/0994 SC040

17:18:35 wx upd end $$$

17:20:09 wx upd begin $$$

17:20:10 received ULAA 121700Z 12004MPS 9999 -SN SCT016 OVC/// M10/M11 Q0995 NOSIG RMK QFE746/0994 SC040

17:20:10 wx upd end $$$

17:21:44 wx upd begin $$$

17:21:44 received ULAA 121700Z 12004MPS 9999 -SN SCT016 OVC/// M10/M11 Q0995 NOSIG RMK QFE746/0994 SC040

17:21:44 wx upd end $$$

17:23:19 wx upd begin $$$

17:23:19 received ULAA 121700Z 12004MPS 9999 -SN SCT016 OVC/// M10/M11 Q0995 NOSIG RMK QFE746/0994 SC040

17:23:19 wx upd end $$$

17:24:53 wx upd begin $$$

17:24:53 received ULAA 121700Z 12004MPS 9999 -SN SCT016 OVC/// M10/M11 Q0995 NOSIG RMK QFE746/0994 SC040

17:24:53 wx upd end $$$

17:26:27 wx upd begin $$$

17:26:27 received ULAA 121700Z 12004MPS 9999 -SN SCT016 OVC/// M10/M11 Q0995 NOSIG RMK QFE746/0994 SC040

17:26:27 wx upd end $$$

17:28:01 wx upd begin $$$

17:28:02 received ULAA 121700Z 12004MPS 9999 -SN SCT016 OVC/// M10/M11 Q0995 NOSIG RMK QFE746/0994 SC040

17:28:02 wx upd end $$$

17:29:36 wx upd begin $$$

17:29:36 received ULAA 121700Z 12004MPS 9999 -SN SCT016 OVC/// M10/M11 Q0995 NOSIG RMK QFE746/0994 SC040

17:29:36 wx upd end $$$

17:31:10 wx upd begin $$$

17:31:10 received ULAA 121700Z 12004MPS 9999 -SN SCT016 OVC/// M10/M11 Q0995 NOSIG RMK QFE746/0994 SC040

17:31:10 wx upd end $$$

17:32:44 wx upd begin $$$

17:32:44 received ULAA 121700Z 12004MPS 9999 -SN SCT016 OVC/// M10/M11 Q0995 NOSIG RMK QFE746/0994 SC040

17:32:44 wx upd end $$$

17:34:18 wx upd begin $$$

17:34:18 received ULAA 121700Z 12004MPS 9999 -SN SCT016 OVC/// M10/M11 Q0995 NOSIG RMK QFE746/0994 SC040

17:34:18 wx upd end $$$

17:35:53 wx upd begin $$$

17:35:53 received ULAA 121700Z 12004MPS 9999 -SN SCT016 OVC/// M10/M11 Q0995 NOSIG RMK QFE746/0994 SC040

17:35:53 wx upd end $$$

17:37:27 wx upd begin $$$

17:37:27 received ULAA 121700Z 12004MPS 9999 -SN SCT016 OVC/// M10/M11 Q0995 NOSIG RMK QFE746/0994 SC040

17:37:27 wx upd end $$$

17:39:01 wx upd begin $$$

17:39:02 received ULAA 121700Z 12004MPS 9999 -SN SCT016 OVC/// M10/M11 Q0995 NOSIG RMK QFE746/0994 SC040

17:39:02 wx upd end $$$

17:40:35 wx upd begin $$$

17:40:36 received ULAA 121700Z 12004MPS 9999 -SN SCT016 OVC/// M10/M11 Q0995 NOSIG RMK QFE746/0994 SC040

17:40:36 wx upd end $$$

17:42:09 wx upd begin $$$

17:42:10 received ULAA 121730Z 11004MPS 9999 SCT020 OVC/// M10/M11 Q0995 NOSIG RMK QFE745/0994 SC035

17:42:10 wx generated for ULAA ULAA 121730Z 11004MPS 9999 SCT020 OVC/// M10/M11 Q0995 NOSIG RMK QFE745/0994 SC035

17:42:10 ULAA 995mb

17:42:10 ULAA -10C -> -85C

17:42:11 KSC set to 74 based on wx

17:42:11 fs9 wx updated for ULAA

17:42:11 wx upd end $$$

17:43:45 wx upd begin $$$

17:43:45 received ULAA 121730Z 11004MPS 9999 SCT020 OVC/// M10/M11 Q0995 NOSIG RMK QFE745/0994 SC035

17:43:45 wx upd end $$$

17:45:19 wx upd begin $$$

17:45:20 received ULAA 121730Z 11004MPS 9999 SCT020 OVC/// M10/M11 Q0995 NOSIG RMK QFE745/0994 SC035

17:45:20 wx upd end $$$

17:46:54 wx upd begin $$$

17:46:54 received ULAA 121730Z 11004MPS 9999 SCT020 OVC/// M10/M11 Q0995 NOSIG RMK QFE745/0994 SC035

17:46:54 wx upd end $$$

17:48:28 wx upd begin $$$

17:48:28 received ULAA 121730Z 11004MPS 9999 SCT020 OVC/// M10/M11 Q0995 NOSIG RMK QFE745/0994 SC035

17:48:28 wx upd end $$$

17:50:02 wx upd begin $$$

17:50:02 received ULAA 121730Z 11004MPS 9999 SCT020 OVC/// M10/M11 Q0995 NOSIG RMK QFE745/0994 SC035

17:50:02 wx upd end $$$

17:51:37 wx upd begin $$$

17:51:37 received ULAA 121730Z 11004MPS 9999 SCT020 OVC/// M10/M11 Q0995 NOSIG RMK QFE745/0994 SC035

17:51:37 wx upd end $$$

17:53:11 wx upd begin $$$

17:53:12 received ULAA 121730Z 11004MPS 9999 SCT020 OVC/// M10/M11 Q0995 NOSIG RMK QFE745/0994 SC035

17:53:12 wx upd end $$$

17:54:46 wx upd begin $$$

17:54:47 received ULAA 121730Z 11004MPS 9999 SCT020 OVC/// M10/M11 Q0995 NOSIG RMK QFE745/0994 SC035

17:54:47 wx upd end $$$

17:56:21 wx upd begin $$$

17:56:21 received ULAA 121730Z 11004MPS 9999 SCT020 OVC/// M10/M11 Q0995 NOSIG RMK QFE745/0994 SC035

17:56:21 wx upd end $$$

17:57:55 wx upd begin $$$

17:57:56 received ULAA 121730Z 11004MPS 9999 SCT020 OVC/// M10/M11 Q0995 NOSIG RMK QFE745/0994 SC035

17:57:56 wx upd end $$$

17:59:11 closest station found USDD (FS=USHH)

17:59:12 received USDD 121700Z 00000MPS 6000 -SN SCT008 OVC100 M22/M24 Q1011 NOSIG RMK QFE754/1005

17:59:12 simulated wind ok

17:59:12 wx generated for USHH USDD 121700Z 00000MPS 6000 -SN SCT008 OVC100 M22/M24 Q1011 NOSIG RMK QFE754/1005

17:59:12 USHH 1011mb

17:59:12 USHH -22C -> -85C

17:59:13 KSC set to 57 based on wx

17:59:13 fs9 wx updated for USHH

18:00:47 wx upd begin $$$

18:00:47 received USDD 121700Z 00000MPS 6000 -SN SCT008 OVC100 M22/M24 Q1011 NOSIG RMK QFE754/1005

18:00:47 wx upd end $$$

18:02:21 wx upd begin $$$

18:02:22 received USDD 121700Z 00000MPS 6000 -SN SCT008 OVC100 M22/M24 Q1011 NOSIG RMK QFE754/1005

18:02:22 wx upd end $$$

18:03:57 wx upd begin $$$

18:03:57 received USDD 121700Z 00000MPS 6000 -SN SCT008 OVC100 M22/M24 Q1011 NOSIG RMK QFE754/1005

18:03:57 wx upd end $$$

18:05:33 wx upd begin $$$

18:05:33 received USDD 121700Z 00000MPS 6000 -SN SCT008 OVC100 M22/M24 Q1011 NOSIG RMK QFE754/1005

18:05:33 wx upd end $$$

18:07:07 wx upd begin $$$

18:07:07 received USDD 121700Z 00000MPS 6000 -SN SCT008 OVC100 M22/M24 Q1011 NOSIG RMK QFE754/1005

18:07:07 wx upd end $$$

18:08:41 wx upd begin $$$

18:08:42 received USDD 121700Z 00000MPS 6000 -SN SCT008 OVC100 M22/M24 Q1011 NOSIG RMK QFE754/1005

18:08:42 wx upd end $$$

18:10:16 wx upd begin $$$

18:10:17 received USDD 121700Z 00000MPS 6000 -SN SCT008 OVC100 M22/M24 Q1011 NOSIG RMK QFE754/1005

18:10:17 wx upd end $$$

18:11:51 wx upd begin $$$

18:11:52 received USDD 121800Z 00000MPS 6000 -SN SCT009 OVC100 M22/M24 Q1011 NOSIG RMK QFE754/1005

18:11:52 wx generated for USHH USDD 121800Z 00000MPS 6000 -SN SCT009 OVC100 M22/M24 Q1011 NOSIG RMK QFE754/1005

18:11:52 USHH 1011mb

18:11:52 USHH -22C -> -85C

18:11:53 KSC set to 57 based on wx

18:11:53 fs9 wx updated for USHH

18:11:53 wx upd end $$$

18:13:28 wx upd begin $$$

18:13:28 received USDD 121800Z 00000MPS 6000 -SN SCT009 OVC100 M22/M24 Q1011 NOSIG RMK QFE754/1005

18:13:28 wx upd end $$$

18:15:02 wx upd begin $$$

18:15:03 received USDD 121800Z 00000MPS 6000 -SN SCT009 OVC100 M22/M24 Q1011 NOSIG RMK QFE754/1005

18:15:03 wx upd end $$$

18:16:37 wx upd begin $$$

18:16:37 received USDD 121800Z 00000MPS 6000 -SN SCT009 OVC100 M22/M24 Q1011 NOSIG RMK QFE754/1005

18:16:37 wx upd end $$$

18:18:11 wx upd begin $$$

18:18:12 received USDD 121800Z 00000MPS 6000 -SN SCT009 OVC100 M22/M24 Q1011 NOSIG RMK QFE754/1005

18:18:12 wx upd end $$$

18:19:51 wx upd begin $$$

18:19:51 received USDD 121800Z 00000MPS 6000 -SN SCT009 OVC100 M22/M24 Q1011 NOSIG RMK QFE754/1005

18:19:51 wx upd end $$$

18:21:25 wx upd begin $$$

18:21:25 received USDD 121800Z 00000MPS 6000 -SN SCT009 OVC100 M22/M24 Q1011 NOSIG RMK QFE754/1005

18:21:25 wx upd end $$$

 

Share this post


Link to post
Share on other sites

Лог предыдущей версии, может что полезного в нём =) Собственно, вчера при полете из USPP в UUWW winds aloft processing был включен, температура на эшелоне менялась, но не резко и в плюс не уходила. А сегодня при полете из UUWW в ULAM резко стала подниматься. Пришлось отключить.

Судя по логу все в норме, кроме этого

11:51:10 wx generated for ULAK ULAK 061500Z 15004MPS 6000 HZ FEW200 BKN100 29/00 Q1015 XNOSIL

11:51:10 ULAK 1015mb

11:51:10 ULAK 29C -> -85C

Может там и правда такая жара стояла или просто тетеньке жарко стало аж пальцы заплелись...

Share this post


Link to post
Share on other sites

вот поправил метеостанции для Украины (некоторых не было,некоторые имели неправильную высоту). измени в своих базах.

Спасибо огромное. Если бы еще частоты АТИСов проверить и обновить - было бы шикарно.

Share this post


Link to post
Share on other sites

Если бы еще частоты АТИСов проверить и обновить - было бы шикарно.

вот. также для Украины.

 

 

UKBB, 50.333333, 030.966667, 126.700, RUS, 18R/183 36L/3 18L/183 36R/3

UKDD, 48.5333333333333, 34.6666666666667, 134.900, RUS, 9/90 27/270

UKDE, 47.867, 35.315, 126.4, 126.400, RUS, 2/23 20/203

UKFF, 44.683333, 034.133333, 127.200, RUS, 1/12 19/192

UKHH, 49.966667, 036.133333, 127.600, RUS, 8/90 26/270

UKKK, 50.400000, 030.566667, 126.800, RUS, 8/90 26/270

UKLI, 48.8833333333333, 24.6833333333333, 126.400, RUS, 10/104 28/284

UKLL, 49.816667, 023.950000, 128.700, RUS, 13/135 31/315

UKON, 47.058056, 31.920833, 134.900, RUS, 5/51 23/231

UKOO, 46.433333, 030.766667, 124.800, RUS, 16/163 34/343

 

 

Share this post


Link to post
Share on other sites

12.1.13 залил. Плановые мелкие фиксы.

Share this post


Link to post
Share on other sites

Для чего программа использует и stations.dat и stations_fs.dat? Ведь данные в stations_fs.dat дублируются, да и если порта в нем нет, то вроде всё работает нормально.

 

Когда прослушиваю АТИС, после обьявления рабочей ВПП и её состояния почему-то проговаривают "ВПП 0 Ромио сцепление 0" Наблюдается во многих портах, например ukhh, ukff, ukll, ukoo, urss.

 

Можно-ли как-то сделать для Украины чтобы голос проговаривал давление по QNH? (тут по QNH летают)

Share this post


Link to post
Share on other sites

Для чего программа использует и stations.dat и stations_fs.dat? Ведь данные в stations_fs.dat дублируются, да и если порта в нем нет, то вроде всё работает нормально.

stations - список метеостанций реальной жизни, служит для определения ближайшей(их) и запроса метеоданных для нее, stations_fs суть список метеостанций симулятора, список которых весьма ограничен. Вот пример практический: мы стоим в ап Кемерово, код UNEE, программа определяет ближайшую метеостанцию как UNEE, запрашивает и получает погоду METAR UNEE с какими-то там данными. В FS9 станции UNEE не существует и если программа отправит в сим данные погоды для UNEE - ничего не произойдет. FS9 просто напросто прноигнорирует это послание. Именно поэтому мы имеем файл со списком станций сима - определить ближайшую станцию к UNEE и установить там нужную нам погоду. Т.о. если я пропишу в stations_fs несуществующую в симе UNEE, то я останусь совсем без погоды.
Когда прослушиваю АТИС, после обьявления рабочей ВПП и её состояния почему-то проговаривают "ВПП 0 Ромио сцепление 0" Наблюдается во многих портах, например ukhh, ukff, ukll, ukoo, urss.
Баг есть такой. Войспаки тоже надо обновить, скоро займусь.

 

Можно-ли как-то сделать для Украины чтобы голос проговаривал давление по QNH? (тут по QNH летают)
А у вас АТИС на русском вещается разве? Edited by Jazz

Share this post


Link to post
Share on other sites
А у вас АТИС на русском вещается разве?

вещается на русском и английском попеременно на одной и той же частоте

 

Т.о. если я пропишу в stations_fs несуществующую в симе UNEE, то я останусь совсем без погоды.

Понятно. Подредактировал станции stations_fs в посте 960

Share this post


Link to post
Share on other sites

Join the conversation

You can post now and register later. If you have an account, sign in now to post with your account.
Note: Your post will require moderator approval before it will be visible.

Guest
Reply to this topic...

×   Pasted as rich text.   Paste as plain text instead

  Only 75 emoji are allowed.

×   Your link has been automatically embedded.   Display as a link instead

×   Your previous content has been restored.   Clear editor

×   You cannot paste images directly. Upload or insert images from URL.

Loading...
Sign in to follow this  

  • Recently Browsing   0 members

    No registered users viewing this page.

×
×
  • Create New...